| time (UTC) | temp F | wind direction | speed MPH | gust MPH | rain 1hr in | rain 24hr in | rain mn in | humidity % | barometer mb |
| 20260505195727 | 65 | 183 | 3.0 | 12.0 | 0.00 | 0.00 | 0.00 | 100 | 949.9 |
| 20260505195525 | 65 | 173 | 4.0 | 12.0 | 0.00 | 0.00 | 0.00 | 100 | 949.8 |
| 20260505195321 | 65 | 173 | 4.0 | 11.0 | 0.00 | 0.00 | 0.00 | 100 | 949.8 |
| 20260505195220 | 65 | 176 | 4.0 | 11.0 | 0.00 | 0.00 | 0.00 | 100 | 950.0 |
| 20260505195118 | 64 | 184 | 2.0 | 11.0 | 0.00 | 0.00 | 0.00 | 100 | 950.0 |
| 20260505194914 | 64 | 187 | 2.0 | 9.0 | 0.00 | 0.00 | 0.00 | 100 | 949.9 |
| 20260505194712 | 64 | 196 | 1.0 | 9.0 | 0.00 | 0.00 | 0.00 | 100 | 949.9 |
| 20260505194611 | 64 | 0 | 1.0 | 4.0 | 0.00 | 0.00 | 0.00 | 100 | 950.0 |
| 20260505194508 | 64 | 0 | 1.0 | 4.0 | 0.00 | 0.00 | 0.00 | 100 | 950.0 |
| 20260505194305 | 65 | 204 | 2.0 | 9.0 | 0.00 | 0.00 | 0.00 | 100 | 949.9 |
| 20260505194102 | 65 | 200 | 2.0 | 9.0 | 0.00 | 0.00 | 0.00 | 100 | 950.0 |
| 20260505194002 | 65 | 194 | 2.0 | 9.0 | 0.00 | 0.00 | 0.00 | 100 | 949.9 |
| 20260505193859 | 65 | 195 | 2.0 | 7.0 | 0.00 | 0.00 | 0.00 | 100 | 950.0 |
| 20260505193656 | 65 | 190 | 2.0 | 14.0 | 0.00 | 0.00 | 0.00 | 100 | 949.9 |
| 20260505193453 | 65 | 193 | 2.0 | 14.0 | 0.00 | 0.00 | 0.00 | 100 | 949.8 |
| 20260505193353 | 65 | 200 | 2.0 | 6.0 | 0.00 | 0.00 | 0.00 | 100 | 949.9 |
| 20260505193251 | 65 | 191 | 2.0 | 6.0 | 0.00 | 0.00 | 0.00 | 100 | 949.9 |
| 20260505193048 | 65 | 180 | 2.0 | 6.0 | 0.00 | 0.00 | 0.00 | 100 | 949.9 |
| 20260505192844 | 66 | 175 | 3.0 | 11.0 | 0.00 | 0.00 | 0.00 | 100 | 949.9 |
| 20260505192743 | 66 | 176 | 3.0 | 11.0 | 0.00 | 0.00 | 0.00 | 100 | 949.9 |
| 20260505192641 | 66 | 178 | 3.0 | 11.0 | 0.00 | 0.00 | 0.00 | 100 | 949.9 |
| 20260505192438 | 66 | 215 | 3.0 | 8.0 | 0.00 | 0.00 | 0.00 | 100 | 950.0 |
| 20260505192235 | 66 | 197 | 3.0 | 16.0 | 0.00 | 0.00 | 0.00 | 100 | 950.0 |
| 20260505192134 | 66 | 191 | 4.0 | 16.0 | 0.00 | 0.00 | 0.00 | 100 | 950.0 |
| 20260505192032 | 66 | 177 | 4.0 | 16.0 | 0.00 | 0.00 | 0.00 | 100 | 949.9 |
| 20260505191829 | 66 | 174 | 4.0 | 11.0 | 0.00 | 0.00 | 0.00 | 100 | 950.0 |
| 20260505191625 | 66 | 173 | 3.0 | 10.0 | 0.00 | 0.00 | 0.00 | 100 | 949.9 |
| 20260505191524 | 66 | 175 | 3.0 | 11.0 | 0.00 | 0.00 | 0.00 | 100 | 950.1 |
| 20260505191422 | 66 | 183 | 3.0 | 11.0 | 0.00 | 0.00 | 0.00 | 100 | 950.1 |
| 20260505191219 | 66 | 181 | 3.0 | 13.0 | 0.00 | 0.00 | 0.00 | 100 | 950.0 |
| 20260505191016 | 66 | 188 | 3.0 | 13.0 | 0.00 | 0.00 | 0.00 | 100 | 950.0 |
| 20260505190915 | 65 | 191 | 2.0 | 13.0 | 0.00 | 0.00 | 0.00 | 100 | 950.0 |
| 20260505190812 | 65 | 195 | 2.0 | 9.0 | 0.00 | 0.00 | 0.00 | 100 | 950.1 |
| 20260505190608 | 65 | 209 | 1.0 | 9.0 | 0.00 | 0.00 | 0.00 | 100 | 950.0 |
| 20260505190355 | 65 | 177 | 2.0 | 8.0 | 0.00 | 0.00 | 0.00 | 100 | 950.1 |
| 20260505190255 | 66 | 174 | 2.0 | 8.0 | 0.00 | 0.00 | 0.00 | 100 | 950.1 |
| 20260505190152 | 66 | 174 | 2.0 | 8.0 | 0.00 | 0.00 | 0.00 | 100 | 950.1 |
| 20260505185949 | 65 | 174 | 1.0 | 5.0 | 0.00 | 0.00 | 0.00 | 100 | 950.0 |
| 20260505185746 | 66 | 0 | 1.0 | 6.0 | 0.00 | 0.00 | 0.00 | 100 | 950.0 |
| 20260505185645 | 66 | 0 | 2.0 | 6.0 | 0.00 | 0.00 | 0.00 | 100 | 950.0 |
| 20260505185543 | 66 | 204 | 2.0 | 8.0 | 0.00 | 0.00 | 0.00 | 100 | 950.0 |
| 20260505185339 | 65 | 226 | 2.0 | 8.0 | 0.00 | 0.00 | 0.00 | 100 | 950.0 |
| 20260505185136 | 65 | 205 | 2.0 | 6.0 | 0.00 | 0.00 | 0.00 | 100 | 950.0 |
| 20260505185036 | 66 | 209 | 2.0 | 6.0 | 0.00 | 0.00 | 0.00 | 100 | 949.9 |
| 20260505184934 | 66 | 190 | 2.0 | 6.0 | 0.00 | 0.00 | 0.00 | 100 | 950.0 |
| 20260505184731 | 66 | 0 | 1.0 | 3.0 | 0.00 | 0.00 | 0.00 | 100 | 950.0 |
| 20260505184528 | 66 | 186 | 2.0 | 11.0 | 0.00 | 0.00 | 0.00 | 100 | 950.0 |
| 20260505184427 | 66 | 192 | 2.0 | 11.0 | 0.00 | 0.00 | 0.00 | 100 | 950.0 |
| 20260505184325 | 66 | 195 | 2.0 | 11.0 | 0.00 | 0.00 | 0.00 | 100 | 950.0 |
| 20260505184122 | 66 | 215 | 2.0 | 6.0 | 0.00 | 0.00 | 0.00 | 100 | 950.0 |
| 20260505183919 | 66 | 182 | 2.0 | 7.0 | 0.00 | 0.00 | 0.00 | 100 | 949.9 |
| 20260505183818 | 66 | 173 | 3.0 | 9.0 | 0.00 | 0.00 | 0.00 | 100 | 949.8 |
| 20260505183716 | 66 | 178 | 3.0 | 10.0 | 0.00 | 0.00 | 0.00 | 100 | 949.8 |
| 20260505183513 | 66 | 188 | 2.0 | 11.0 | 0.00 | 0.00 | 0.00 | 100 | 949.8 |
| 20260505183310 | 66 | 188 | 2.0 | 16.0 | 0.00 | 0.00 | 0.00 | 100 | 949.8 |
| 20260505183209 | 67 | 191 | 2.0 | 16.0 | 0.00 | 0.00 | 0.00 | 100 | 949.8 |
| 20260505183107 | 67 | 185 | 3.0 | 16.0 | 0.00 | 0.00 | 0.00 | 100 | 949.8 |
| 20260505182903 | 66 | 194 | 2.0 | 10.0 | 0.00 | 0.00 | 0.00 | 100 | 949.8 |
| 20260505182701 | 66 | 194 | 1.0 | 10.0 | 0.00 | 0.00 | 0.00 | 100 | 949.8 |
| 20260505182600 | 66 | 204 | 1.0 | 6.0 | 0.00 | 0.00 | 0.00 | 100 | 949.9 |
| 20260505182457 | 66 | 198 | 1.0 | 8.0 | 0.00 | 0.00 | 0.00 | 100 | 949.9 |
| 20260505182254 | 67 | 192 | 2.0 | 8.0 | 0.00 | 0.00 | 0.00 | 100 | 949.9 |
| 20260505182051 | 67 | 202 | 2.0 | 8.0 | 0.00 | 0.00 | 0.00 | 100 | 949.9 |
| 20260505181950 | 67 | 206 | 2.0 | 9.0 | 0.00 | 0.00 | 0.00 | 100 | 949.9 |
| 20260505181848 | 67 | 201 | 2.0 | 9.0 | 0.00 | 0.00 | 0.00 | 100 | 949.8 |
| 20260505181644 | 67 | 194 | 2.0 | 9.0 | 0.00 | 0.00 | 0.00 | 100 | 949.9 |
| 20260505181441 | 67 | 186 | 2.0 | 9.0 | 0.00 | 0.00 | 0.00 | 100 | 949.9 |
| 20260505181341 | 67 | 174 | 3.0 | 9.0 | 0.00 | 0.00 | 0.00 | 100 | 949.9 |
| 20260505181239 | 67 | 176 | 3.0 | 9.0 | 0.00 | 0.00 | 0.00 | 100 | 949.9 |
| 20260505181036 | 67 | 173 | 3.0 | 9.0 | 0.00 | 0.00 | 0.00 | 100 | 949.8 |
| 20260505180833 | 67 | 184 | 2.0 | 14.0 | 0.00 | 0.00 | 0.00 | 100 | 949.8 |
| 20260505180732 | 67 | 183 | 3.0 | 14.0 | 0.00 | 0.00 | 0.00 | 100 | 949.8 |
| 20260505180629 | 68 | 178 | 3.0 | 14.0 | 0.00 | 0.00 | 0.00 | 100 | 949.8 |
| 20260505180426 | 68 | 174 | 4.0 | 14.0 | 0.00 | 0.00 | 0.00 | 100 | 949.9 |
| 20260505180223 | 68 | 174 | 4.0 | 15.0 | 0.00 | 0.00 | 0.00 | 100 | 949.8 |
| 20260505180122 | 68 | 178 | 4.0 | 15.0 | 0.00 | 0.00 | 0.00 | 100 | 949.8 |
| 20260505180020 | 68 | 179 | 4.0 | 15.0 | 0.00 | 0.00 | 0.00 | 100 | 949.8 |
| 20260505175818 | 68 | 188 | 4.0 | 12.0 | 0.00 | 0.00 | 0.00 | 100 | 949.8 |
| 20260505175614 | 68 | 196 | 3.0 | 12.0 | 0.00 | 0.00 | 0.00 | 100 | 949.9 |
| 20260505175514 | 68 | 195 | 2.0 | 11.0 | 0.00 | 0.00 | 0.00 | 100 | 949.8 |
| 20260505175412 | 68 | 208 | 2.0 | 11.0 | 0.00 | 0.00 | 0.00 | 100 | 949.9 |
| 20260505175208 | 68 | 182 | 2.0 | 9.0 | 0.00 | 0.00 | 0.00 | 100 | 949.9 |
| 20260505175005 | 68 | 179 | 3.0 | 15.0 | 0.00 | 0.00 | 0.00 | 100 | 950.0 |
| 20260505174904 | 68 | 181 | 4.0 | 15.0 | 0.00 | 0.00 | 0.00 | 100 | 950.0 |
| 20260505174801 | 68 | 171 | 3.0 | 15.0 | 0.00 | 0.00 | 0.00 | 100 | 950.0 |
| 20260505174559 | 68 | 176 | 3.0 | 10.0 | 0.00 | 0.00 | 0.00 | 100 | 950.0 |
| 20260505174356 | 68 | 185 | 4.0 | 10.0 | 0.00 | 0.00 | 0.00 | 100 | 949.8 |
| 20260505174255 | 68 | 189 | 4.0 | 13.0 | 0.00 | 0.00 | 0.00 | 100 | 949.9 |
| 20260505174152 | 68 | 187 | 5.0 | 13.0 | 0.00 | 0.00 | 0.00 | 100 | 949.8 |
| 20260505173950 | 69 | 180 | 4.0 | 17.0 | 0.00 | 0.00 | 0.00 | 100 | 949.9 |
| 20260505173747 | 69 | 173 | 5.0 | 19.0 | 0.00 | 0.00 | 0.00 | 100 | 949.9 |
| 20260505173647 | 69 | 177 | 5.0 | 19.0 | 0.00 | 0.00 | 0.00 | 100 | 950.0 |
| 20260505173544 | 69 | 183 | 4.0 | 19.0 | 0.00 | 0.00 | 0.00 | 100 | 949.8 |
| 20260505173341 | 69 | 187 | 3.0 | 13.0 | 0.00 | 0.00 | 0.00 | 100 | 949.9 |
| 20260505173138 | 69 | 177 | 4.0 | 13.0 | 0.00 | 0.00 | 0.00 | 100 | 949.8 |
| 20260505173038 | 69 | 177 | 4.0 | 13.0 | 0.00 | 0.00 | 0.00 | 100 | 949.9 |
| 20260505172936 | 69 | 186 | 3.0 | 13.0 | 0.00 | 0.00 | 0.00 | 100 | 949.8 |
| 20260505172732 | 69 | 190 | 3.0 | 13.0 | 0.00 | 0.00 | 0.00 | 100 | 949.8 |
| 20260505172530 | 69 | 208 | 3.0 | 10.0 | 0.00 | 0.00 | 0.00 | 100 | 949.8 |
| 20260505172429 | 69 | 213 | 2.0 | 10.0 | 0.00 | 0.00 | 0.00 | 100 | 949.8 |
| 20260505172327 | 69 | 225 | 2.0 | 9.0 | 0.00 | 0.00 | 0.00 | 100 | 949.8 |
| 20260505172124 | 69 | 215 | 2.0 | 12.0 | 0.00 | 0.00 | 0.00 | 100 | 950.0 |
| 20260505171921 | 69 | 176 | 4.0 | 13.0 | 0.00 | 0.00 | 0.00 | 100 | 949.8 |
| 20260505171820 | 69 | 172 | 4.0 | 13.0 | 0.00 | 0.00 | 0.00 | 100 | 949.8 |
| 20260505171718 | 69 | 172 | 4.0 | 13.0 | 0.00 | 0.00 | 0.00 | 100 | 949.7 |
| 20260505171515 | 70 | 188 | 3.0 | 11.0 | 0.00 | 0.00 | 0.00 | 100 | 949.8 |
| 20260505171311 | 70 | 187 | 2.0 | 10.0 | 0.00 | 0.00 | 0.00 | 100 | 949.8 |
| 20260505171210 | 70 | 181 | 2.0 | 10.0 | 0.00 | 0.00 | 0.00 | 100 | 949.8 |
| 20260505171108 | 70 | 192 | 2.0 | 6.0 | 0.00 | 0.00 | 0.00 | 100 | 949.8 |
| 20260505170906 | 70 | 176 | 3.0 | 11.0 | 0.00 | 0.00 | 0.00 | 100 | 949.8 |
| 20260505170703 | 71 | 174 | 4.0 | 15.0 | 0.00 | 0.00 | 0.00 | 100 | 949.8 |
| 20260505170602 | 71 | 172 | 4.0 | 15.0 | 0.00 | 0.00 | 0.00 | 100 | 949.7 |
| 20260505170500 | 71 | 180 | 4.0 | 15.0 | 0.00 | 0.00 | 0.00 | 100 | 949.8 |
| 20260505170257 | 71 | 178 | 4.0 | 15.0 | 0.00 | 0.00 | 0.00 | 100 | 949.7 |
| 20260505170053 | 71 | 190 | 3.0 | 12.0 | 0.00 | 0.00 | 0.00 | 100 | 949.9 |
| 20260505165953 | 71 | 194 | 3.0 | 15.0 | 0.00 | 0.00 | 0.00 | 100 | 949.8 |
| 20260505165850 | 71 | 173 | 3.0 | 15.0 | 0.00 | 0.00 | 0.00 | 100 | 949.8 |
| 20260505165647 | 71 | 166 | 6.0 | 15.0 | 0.00 | 0.00 | 0.00 | 100 | 949.7 |
| 20260505165444 | 71 | 168 | 6.0 | 15.0 | 0.00 | 0.00 | 0.00 | 100 | 949.8 |
| 20260505165344 | 71 | 171 | 6.0 | 16.0 | 0.00 | 0.00 | 0.00 | 100 | 949.7 |
| 20260505165242 | 72 | 178 | 5.0 | 16.0 | 0.00 | 0.00 | 0.00 | 100 | 949.8 |
| 20260505165038 | 72 | 194 | 3.0 | 16.0 | 0.00 | 0.00 | 0.00 | 100 | 949.7 |
| 20260505164835 | 72 | 217 | 4.0 | 11.0 | 0.00 | 0.00 | 0.00 | 100 | 949.8 |
| 20260505164734 | 72 | 203 | 3.0 | 13.0 | 0.00 | 0.00 | 0.00 | 100 | 949.7 |
| 20260505164632 | 72 | 198 | 3.0 | 13.0 | 0.00 | 0.00 | 0.00 | 100 | 949.7 |
| 20260505164429 | 72 | 183 | 4.0 | 16.0 | 0.00 | 0.00 | 0.00 | 100 | 949.7 |
| 20260505164226 | 72 | 182 | 4.0 | 16.0 | 0.00 | 0.00 | 0.00 | 100 | 949.7 |
| 20260505164126 | 72 | 184 | 4.0 | 16.0 | 0.00 | 0.00 | 0.00 | 100 | 949.7 |
| 20260505164023 | 72 | 185 | 4.0 | 18.0 | 0.00 | 0.00 | 0.00 | 100 | 949.7 |
| 20260505163820 | 72 | 177 | 6.0 | 18.0 | 0.00 | 0.00 | 0.00 | 100 | 949.8 |
| 20260505163618 | 72 | 183 | 6.0 | 18.0 | 0.00 | 0.00 | 0.00 | 100 | 949.6 |
| 20260505163517 | 72 | 190 | 5.0 | 13.0 | 0.00 | 0.00 | 0.00 | 100 | 949.7 |
| 20260505163415 | 73 | 193 | 4.0 | 13.0 | 0.00 | 0.00 | 0.00 | 100 | 949.7 |
| 20260505163212 | 73 | 194 | 3.0 | 11.0 | 0.00 | 0.00 | 0.00 | 100 | 949.6 |
| 20260505163009 | 73 | 185 | 3.0 | 14.0 | 0.00 | 0.00 | 0.00 | 100 | 949.8 |
| 20260505162907 | 73 | 184 | 3.0 | 14.0 | 0.00 | 0.00 | 0.00 | 100 | 949.9 |
| 20260505162805 | 73 | 197 | 4.0 | 14.0 | 0.00 | 0.00 | 0.00 | 100 | 949.7 |
| 20260505162549 | 72 | 188 | 4.0 | 16.0 | 0.00 | 0.00 | 0.00 | 100 | 949.6 |
| 20260505162346 | 72 | 179 | 4.0 | 16.0 | 0.00 | 0.00 | 0.00 | 100 | 949.7 |
| 20260505162245 | 72 | 180 | 4.0 | 16.0 | 0.00 | 0.00 | 0.00 | 100 | 949.7 |
| 20260505162143 | 72 | 176 | 4.0 | 16.0 | 0.00 | 0.00 | 0.00 | 100 | 949.6 |
| 20260505161940 | 72 | 168 | 5.0 | 14.0 | 0.00 | 0.00 | 0.00 | 100 | 949.8 |
| 20260505161737 | 72 | 166 | 5.0 | 14.0 | 0.00 | 0.00 | 0.00 | 100 | 949.6 |
| 20260505161637 | 72 | 166 | 5.0 | 14.0 | 0.00 | 0.00 | 0.00 | 100 | 949.7 |
| 20260505161534 | 72 | 163 | 5.0 | 17.0 | 0.00 | 0.00 | 0.00 | 100 | 949.7 |
| 20260505161331 | 72 | 162 | 5.0 | 17.0 | 0.00 | 0.00 | 0.00 | 100 | 949.7 |
| 20260505161128 | 72 | 170 | 2.0 | 10.0 | 0.00 | 0.00 | 0.00 | 100 | 949.7 |
| 20260505161027 | 73 | 183 | 2.0 | 7.0 | 0.00 | 0.00 | 0.00 | 100 | 949.8 |
| 20260505160925 | 73 | 174 | 2.0 | 7.0 | 0.00 | 0.00 | 0.00 | 100 | 949.6 |
| 20260505160721 | 73 | 194 | 3.0 | 14.0 | 0.00 | 0.00 | 0.00 | 100 | 949.7 |
| 20260505160518 | 72 | 193 | 4.0 | 14.0 | 0.00 | 0.00 | 0.00 | 100 | 949.6 |
| 20260505160417 | 72 | 191 | 4.0 | 14.0 | 0.00 | 0.00 | 0.00 | 100 | 949.6 |
| 20260505160315 | 72 | 184 | 4.0 | 16.0 | 0.00 | 0.00 | 0.00 | 100 | 949.5 |
| 20260505160111 | 72 | 185 | 4.0 | 16.0 | 0.00 | 0.00 | 0.00 | 100 | 949.6 |
| 20260505153329 | 73 | 197 | 5.0 | 22.0 | 0.00 | 0.00 | 0.00 | 100 | 949.5 |
| 20260505153227 | 73 | 189 | 5.0 | 22.0 | 0.00 | 0.00 | 0.00 | 100 | 949.2 |
| 20260505153024 | 74 | 191 | 4.0 | 22.0 | 0.00 | 0.00 | 0.00 | 100 | 949.4 |
| 20260505152821 | 74 | 200 | 4.0 | 15.0 | 0.00 | 0.00 | 0.00 | 100 | 949.5 |
| 20260505152720 | 74 | 198 | 4.0 | 15.0 | 0.00 | 0.00 | 0.00 | 100 | 949.7 |
| 20260505152617 | 74 | 193 | 4.0 | 15.0 | 0.00 | 0.00 | 0.00 | 100 | 949.6 |
| 20260505152414 | 74 | 184 | 5.0 | 21.0 | 0.00 | 0.00 | 0.00 | 100 | 949.5 |
| 20260505152211 | 74 | 191 | 4.0 | 21.0 | 0.00 | 0.00 | 0.00 | 100 | 949.6 |
| 20260505152111 | 74 | 216 | 4.0 | 21.0 | 0.00 | 0.00 | 0.00 | 100 | 949.4 |
| 20260505152008 | 75 | 238 | 3.0 | 12.0 | 0.00 | 0.00 | 0.00 | 100 | 949.7 |
| 20260505151805 | 75 | 221 | 3.0 | 12.0 | 0.00 | 0.00 | 0.00 | 100 | 949.6 |
| 20260505151603 | 75 | 214 | 3.0 | 14.0 | 0.00 | 0.00 | 0.00 | 100 | 949.5 |
| 20260505151503 | 75 | 210 | 3.0 | 20.0 | 0.00 | 0.00 | 0.00 | 100 | 949.5 |
| 20260505151401 | 75 | 195 | 4.0 | 22.0 | 0.00 | 0.00 | 0.00 | 100 | 949.7 |
| 20260505151158 | 75 | 197 | 4.0 | 22.0 | 0.00 | 0.00 | 0.00 | 100 | 949.5 |
| 20260505150955 | 75 | 203 | 4.0 | 19.0 | 0.00 | 0.00 | 0.00 | 100 | 949.6 |
| 20260505150855 | 75 | 197 | 4.0 | 19.0 | 0.00 | 0.00 | 0.00 | 100 | 949.6 |
| 20260505150753 | 75 | 196 | 5.0 | 19.0 | 0.00 | 0.00 | 0.00 | 100 | 949.5 |
| 20260505150550 | 75 | 195 | 5.0 | 22.0 | 0.00 | 0.00 | 0.00 | 100 | 949.5 |
| 20260505150346 | 75 | 197 | 5.0 | 22.0 | 0.00 | 0.00 | 0.00 | 100 | 949.6 |
| 20260505150246 | 75 | 193 | 7.0 | 28.0 | 0.00 | 0.00 | 0.00 | 100 | 949.6 |
| 20260505150143 | 75 | 186 | 7.0 | 28.0 | 0.00 | 0.00 | 0.00 | 100 | 949.6 |
| 20260505140620 | 74 | 206 | 4.0 | 15.0 | 0.00 | 0.00 | 0.00 | 100 | 950.1 |
| 20260505140417 | 74 | 187 | 4.0 | 15.0 | 0.00 | 0.00 | 0.00 | 100 | 950.0 |
| 20260505140214 | 74 | 183 | 4.0 | 21.0 | 0.00 | 0.00 | 0.00 | 100 | 950.0 |
| 20260505140114 | 74 | 184 | 5.0 | 21.0 | 0.00 | 0.00 | 0.00 | 100 | 949.9 |
| 20260505130236 | 76 | 216 | 3.0 | 21.0 | 0.00 | 0.00 | 0.00 | 100 | 950.4 |
| 20260505125016 | 76 | 191 | 6.0 | 28.0 | 0.00 | 0.00 | 0.00 | 100 | 950.2 |
| 20260505124813 | 77 | 193 | 6.0 | 28.0 | 0.00 | 0.00 | 0.00 | 100 | 950.4 |
| 20260505124712 | 76 | 191 | 5.0 | 18.0 | 0.00 | 0.00 | 0.00 | 100 | 950.3 |
| 20260505124610 | 76 | 187 | 5.0 | 22.0 | 0.00 | 0.00 | 0.00 | 100 | 950.5 |
| 20260505124407 | 76 | 168 | 10.0 | 34.0 | 0.00 | 0.00 | 0.00 | 100 | 950.6 |
| 20260505124204 | 74 | 166 | 13.0 | 34.0 | 0.00 | 0.00 | 0.00 | 100 | 950.4 |
| 20260505124104 | 75 | 165 | 12.0 | 34.0 | 0.00 | 0.00 | 0.00 | 100 | 950.3 |
| 20260505124001 | 75 | 167 | 10.0 | 26.0 | 0.00 | 0.00 | 0.00 | 100 | 950.6 |
| 20260505123758 | 75 | 167 | 10.0 | 26.0 | 0.00 | 0.00 | 0.00 | 100 | 950.4 |
| 20260505123555 | 76 | 166 | 9.0 | 23.0 | 0.00 | 0.00 | 0.00 | 100 | 950.5 |
| 20260505123454 | 75 | 167 | 9.0 | 24.0 | 0.00 | 0.00 | 0.00 | 100 | 950.5 |
| 20260505123352 | 75 | 168 | 8.0 | 27.0 | 0.00 | 0.00 | 0.00 | 100 | 950.5 |
| 20260505123148 | 75 | 169 | 8.0 | 27.0 | 0.00 | 0.00 | 0.00 | 100 | 950.5 |
| 20260505122945 | 74 | 167 | 6.0 | 15.0 | 0.00 | 0.00 | 0.00 | 100 | 950.4 |
| 20260505122845 | 74 | 170 | 5.0 | 14.0 | 0.00 | 0.00 | 0.00 | 100 | 950.5 |
| 20260505122742 | 74 | 179 | 5.0 | 14.0 | 0.00 | 0.00 | 0.00 | 100 | 950.6 |
| 20260505122539 | 73 | 175 | 5.0 | 23.0 | 0.00 | 0.00 | 0.00 | 100 | 950.6 |
| 20260505122336 | 73 | 170 | 7.0 | 23.0 | 0.00 | 0.00 | 0.00 | 100 | 950.7 |
| 20260505122235 | 73 | 169 | 7.0 | 23.0 | 0.00 | 0.00 | 0.00 | 100 | 950.6 |
| 20260505122132 | 73 | 173 | 6.0 | 23.0 | 0.00 | 0.00 | 0.00 | 100 | 950.6 |
| 20260505121930 | 73 | 183 | 4.0 | 15.0 | 0.00 | 0.00 | 0.00 | 100 | 950.7 |
| 20260505121727 | 73 | 196 | 4.0 | 14.0 | 0.00 | 0.00 | 0.00 | 100 | 950.7 |
| 20260505121626 | 73 | 200 | 4.0 | 14.0 | 0.00 | 0.00 | 0.00 | 100 | 950.8 |
| 20260505121524 | 73 | 208 | 4.0 | 14.0 | 0.00 | 0.00 | 0.00 | 100 | 950.8 |
| 20260505121321 | 73 | 187 | 5.0 | 13.0 | 0.00 | 0.00 | 0.00 | 100 | 950.7 |
| 20260505121118 | 73 | 183 | 5.0 | 14.0 | 0.00 | 0.00 | 0.00 | 100 | 950.9 |
| 20260505121017 | 73 | 171 | 4.0 | 14.0 | 0.00 | 0.00 | 0.00 | 100 | 950.9 |
| 20260505120914 | 73 | 181 | 4.0 | 17.0 | 0.00 | 0.00 | 0.00 | 100 | 950.8 |
| 20260505120711 | 72 | 172 | 5.0 | 18.0 | 0.00 | 0.00 | 0.00 | 100 | 950.8 |
| 20260505120508 | 72 | 168 | 6.0 | 18.0 | 0.00 | 0.00 | 0.00 | 100 | 950.9 |
| 20260505120407 | 72 | 169 | 7.0 | 19.0 | 0.00 | 0.00 | 0.00 | 100 | 950.8 |
| 20260505120305 | 72 | 170 | 7.0 | 19.0 | 0.00 | 0.00 | 0.00 | 100 | 951.0 |
| 20260505115859 | 72 | 172 | 8.0 | 25.0 | 0.00 | 0.00 | 0.00 | 100 | 950.9 |
| 20260505115759 | 72 | 173 | 9.0 | 25.0 | 0.00 | 0.00 | 0.00 | 100 | 951.1 |
| 20260505115656 | 72 | 170 | 9.0 | 25.0 | 0.00 | 0.00 | 0.00 | 100 | 951.0 |
| 20260505115454 | 72 | 170 | 7.0 | 21.0 | 0.00 | 0.00 | 0.00 | 100 | 951.0 |
| 20260505115250 | 73 | 199 | 4.0 | 13.0 | 0.00 | 0.00 | 0.00 | 100 | 951.1 |
| 20260505115150 | 72 | 218 | 3.0 | 13.0 | 0.00 | 0.00 | 0.00 | 100 | 950.9 |
| 20260505115048 | 72 | 214 | 3.0 | 16.0 | 0.00 | 0.00 | 0.00 | 100 | 950.9 |
| 20260505114845 | 72 | 216 | 3.0 | 16.0 | 0.00 | 0.00 | 0.00 | 100 | 951.1 |
| 20260505114642 | 73 | 212 | 3.0 | 12.0 | 0.00 | 0.00 | 0.00 | 100 | 951.0 |
| 20260505114541 | 73 | 203 | 3.0 | 15.0 | 0.00 | 0.00 | 0.00 | 100 | 951.1 |
| 20260505114439 | 73 | 209 | 3.0 | 15.0 | 0.00 | 0.00 | 0.00 | 100 | 951.1 |
| 20260505114235 | 73 | 231 | 3.0 | 15.0 | 0.00 | 0.00 | 0.00 | 100 | 951.1 |
| 20260505114033 | 73 | 226 | 4.0 | 14.0 | 0.00 | 0.00 | 0.00 | 100 | 951.2 |
| 20260505113932 | 73 | 212 | 4.0 | 17.0 | 0.00 | 0.00 | 0.00 | 100 | 951.1 |
| 20260505113829 | 73 | 212 | 5.0 | 17.0 | 0.00 | 0.00 | 0.00 | 100 | 951.1 |
| 20260505113626 | 73 | 202 | 4.0 | 17.0 | 0.00 | 0.00 | 0.00 | 100 | 951.0 |
| 20260505113423 | 74 | 193 | 4.0 | 17.0 | 0.00 | 0.00 | 0.00 | 100 | 950.9 |
| 20260505113322 | 74 | 182 | 5.0 | 17.0 | 0.00 | 0.00 | 0.00 | 100 | 951.1 |
| 20260505113220 | 74 | 178 | 4.0 | 17.0 | 0.00 | 0.00 | 0.00 | 100 | 951.0 |
| 20260505113017 | 73 | 192 | 3.0 | 14.0 | 0.00 | 0.00 | 0.00 | 100 | 951.2 |
| 20260505112814 | 73 | 216 | 3.0 | 14.0 | 0.00 | 0.00 | 0.00 | 100 | 951.2 |
| 20260505112713 | 73 | 210 | 4.0 | 18.0 | 0.00 | 0.00 | 0.00 | 100 | 951.2 |
| 20260505112611 | 73 | 197 | 5.0 | 18.0 | 0.00 | 0.00 | 0.00 | 100 | 951.1 |
| 20260505112408 | 73 | 194 | 5.0 | 18.0 | 0.00 | 0.00 | 0.00 | 100 | 951.1 |
| 20260505112205 | 73 | 203 | 3.0 | 15.0 | 0.00 | 0.00 | 0.00 | 100 | 951.2 |
| 20260505112103 | 73 | 213 | 3.0 | 15.0 | 0.00 | 0.00 | 0.00 | 100 | 951.2 |
| 20260505112001 | 73 | 216 | 3.0 | 13.0 | 0.00 | 0.00 | 0.00 | 100 | 951.3 |
| 20260505111758 | 73 | 188 | 5.0 | 20.0 | 0.00 | 0.00 | 0.00 | 100 | 951.3 |
| 20260505111555 | 73 | 178 | 4.0 | 20.0 | 0.00 | 0.00 | 0.00 | 100 | 951.1 |
| 20260505111454 | 73 | 183 | 4.0 | 18.0 | 0.00 | 0.00 | 0.00 | 100 | 951.1 |
| 20260505111352 | 74 | 216 | 3.0 | 13.0 | 0.00 | 0.00 | 0.00 | 100 | 951.4 |
| 20260505111149 | 74 | 221 | 2.0 | 13.0 | 0.00 | 0.00 | 0.00 | 100 | 951.4 |
| 20260505110946 | 74 | 182 | 4.0 | 12.0 | 0.00 | 0.00 | 0.00 | 100 | 951.3 |
| 20260505110845 | 75 | 176 | 4.0 | 20.0 | 0.00 | 0.00 | 0.00 | 100 | 951.5 |
| 20260505110730 | 75 | 176 | 4.0 | 20.0 | 0.00 | 0.00 | 0.00 | 100 | 951.3 |
| 20260505110527 | 75 | 188 | 4.0 | 20.0 | 0.00 | 0.00 | 0.00 | 100 | 951.3 |
| 20260505110324 | 75 | 183 | 4.0 | 20.0 | 0.00 | 0.00 | 0.00 | 100 | 951.4 |
| 20260505110223 | 75 | 181 | 4.0 | 20.0 | 0.00 | 0.00 | 0.00 | 100 | 951.2 |
| 20260505110120 | 75 | 179 | 3.0 | 15.0 | 0.00 | 0.00 | 0.00 | 100 | 951.3 |
| 20260505102222 | 74 | 176 | 4.0 | 22.0 | 0.00 | 0.00 | 0.00 | 100 | 951.3 |
| 20260505102019 | 73 | 173 | 4.0 | 32.0 | 0.00 | 0.00 | 0.00 | 100 | 951.4 |
| 20260505101918 | 73 | 169 | 9.0 | 32.0 | 0.00 | 0.00 | 0.00 | 100 | 951.5 |
| 20260505101815 | 73 | 168 | 10.0 | 32.0 | 0.00 | 0.00 | 0.00 | 100 | 951.5 |
| 20260505101612 | 73 | 164 | 11.0 | 32.0 | 0.00 | 0.00 | 0.00 | 100 | 951.3 |
| 20260505101409 | 73 | 162 | 14.0 | 31.0 | 0.00 | 0.00 | 0.00 | 100 | 951.4 |
| 20260505101308 | 73 | 161 | 14.0 | 31.0 | 0.00 | 0.00 | 0.00 | 100 | 951.4 |
| 20260505101206 | 72 | 161 | 12.0 | 31.0 | 0.00 | 0.00 | 0.00 | 100 | 951.2 |
| 20260505101002 | 74 | 165 | 9.0 | 30.0 | 0.00 | 0.00 | 0.00 | 100 | 951.4 |
| 20260505100759 | 73 | 165 | 11.0 | 30.0 | 0.00 | 0.00 | 0.00 | 100 | 951.4 |
| 20260505100658 | 73 | 164 | 11.0 | 30.0 | 0.00 | 0.00 | 0.00 | 100 | 951.6 |
| 20260505100556 | 73 | 165 | 11.0 | 29.0 | 0.00 | 0.00 | 0.00 | 100 | 951.5 |
| 20260505100354 | 74 | 172 | 8.0 | 20.0 | 0.00 | 0.00 | 0.00 | 100 | 951.4 |
| 20260505100151 | 74 | 231 | 4.0 | 17.0 | 0.00 | 0.00 | 0.00 | 100 | 951.5 |
| 20260505100051 | 74 | 236 | 4.0 | 17.0 | 0.00 | 0.00 | 0.00 | 100 | 951.4 |
| 20260505095948 | 74 | 229 | 3.0 | 11.0 | 0.00 | 0.00 | 0.00 | 100 | 951.6 |
| 20260505095745 | 74 | 220 | 3.0 | 12.0 | 0.00 | 0.00 | 0.00 | 100 | 951.4 |
| 20260505095542 | 73 | 202 | 3.0 | 16.0 | 0.00 | 0.00 | 0.00 | 100 | 951.7 |
| 20260505095441 | 73 | 197 | 4.0 | 16.0 | 0.00 | 0.00 | 0.00 | 100 | 951.5 |
| 20260505095338 | 74 | 197 | 4.0 | 16.0 | 0.00 | 0.00 | 0.00 | 100 | 951.7 |
| 20260505095135 | 74 | 203 | 3.0 | 16.0 | 0.00 | 0.00 | 0.00 | 100 | 951.6 |
| 20260505094932 | 74 | 191 | 4.0 | 18.0 | 0.00 | 0.00 | 0.00 | 100 | 951.4 |
| 20260505094832 | 74 | 182 | 4.0 | 19.0 | 0.00 | 0.00 | 0.00 | 100 | 951.6 |
| 20260505094729 | 74 | 178 | 5.0 | 19.0 | 0.00 | 0.00 | 0.00 | 100 | 951.7 |
| 20260505094526 | 73 | 178 | 5.0 | 19.0 | 0.00 | 0.00 | 0.00 | 100 | 951.6 |
| 20260505094323 | 74 | 175 | 6.0 | 24.0 | 0.00 | 0.00 | 0.00 | 100 | 951.6 |
| 20260505094223 | 73 | 168 | 6.0 | 24.0 | 0.00 | 0.00 | 0.00 | 100 | 951.7 |
| 20260505094120 | 73 | 169 | 7.0 | 24.0 | 0.00 | 0.00 | 0.00 | 100 | 951.4 |
| 20260505093917 | 74 | 176 | 5.0 | 18.0 | 0.00 | 0.00 | 0.00 | 100 | 951.9 |
| 20260505093714 | 74 | 175 | 5.0 | 24.0 | 0.00 | 0.00 | 0.00 | 100 | 951.5 |
| 20260505093614 | 73 | 169 | 10.0 | 24.0 | 0.00 | 0.00 | 0.00 | 100 | 951.7 |
| 20260505093511 | 73 | 167 | 11.0 | 24.0 | 0.00 | 0.00 | 0.00 | 100 | 951.7 |
| 20260505093309 | 73 | 164 | 13.0 | 28.0 | 0.00 | 0.00 | 0.00 | 100 | 951.5 |
| 20260505093105 | 72 | 164 | 11.0 | 28.0 | 0.00 | 0.00 | 0.00 | 100 | 951.5 |
| 20260505093005 | 73 | 169 | 8.0 | 21.0 | 0.00 | 0.00 | 0.00 | 100 | 951.5 |
| 20260505092903 | 73 | 174 | 6.0 | 21.0 | 0.00 | 0.00 | 0.00 | 100 | 951.7 |
| 20260505092700 | 73 | 184 | 5.0 | 16.0 | 0.00 | 0.00 | 0.00 | 100 | 951.5 |
| 20260505092456 | 73 | 169 | 8.0 | 22.0 | 0.00 | 0.00 | 0.00 | 100 | 951.7 |
| 20260505092355 | 73 | 168 | 9.0 | 22.0 | 0.00 | 0.00 | 0.00 | 100 | 951.6 |
| 20260505092253 | 73 | 166 | 8.0 | 22.0 | 0.00 | 0.00 | 0.00 | 100 | 951.5 |
| 20260505092049 | 73 | 171 | 7.0 | 22.0 | 0.00 | 0.00 | 0.00 | 100 | 951.6 |
| 20260505091846 | 75 | 182 | 4.0 | 18.0 | 0.00 | 0.00 | 0.00 | 100 | 951.8 |
| 20260505091746 | 74 | 189 | 3.0 | 13.0 | 0.00 | 0.00 | 0.00 | 100 | 951.8 |
| 20260505091644 | 74 | 187 | 2.0 | 13.0 | 0.00 | 0.00 | 0.00 | 100 | 951.8 |
| 20260505091440 | 74 | 187 | 3.0 | 16.0 | 0.00 | 0.00 | 0.00 | 100 | 951.8 |
| 20260505091237 | 73 | 204 | 4.0 | 16.0 | 0.00 | 0.00 | 0.00 | 100 | 951.9 |
| 20260505091136 | 73 | 215 | 4.0 | 16.0 | 0.00 | 0.00 | 0.00 | 100 | 951.8 |
| 20260505091034 | 73 | 198 | 4.0 | 16.0 | 0.00 | 0.00 | 0.00 | 100 | 951.7 |
| 20260505090830 | 73 | 196 | 4.0 | 16.0 | 0.00 | 0.00 | 0.00 | 100 | 951.9 |
| 20260505090627 | 73 | 214 | 3.0 | 12.0 | 0.00 | 0.00 | 0.00 | 100 | 951.8 |
| 20260505090527 | 73 | 208 | 3.0 | 12.0 | 0.00 | 0.00 | 0.00 | 100 | 951.7 |
| 20260505090424 | 73 | 203 | 3.0 | 10.0 | 0.00 | 0.00 | 0.00 | 100 | 951.8 |
| 20260505090222 | 73 | 178 | 4.0 | 17.0 | 0.00 | 0.00 | 0.00 | 100 | 951.9 |
| 20260505090019 | 72 | 168 | 6.0 | 30.0 | 0.00 | 0.00 | 0.00 | 100 | 951.8 |
| 20260505085919 | 72 | 170 | 6.0 | 30.0 | 0.00 | 0.00 | 0.00 | 100 | 951.9 |
| 20260505085816 | 72 | 177 | 5.0 | 30.0 | 0.00 | 0.00 | 0.00 | 100 | 951.8 |
| 20260505085613 | 73 | 178 | 5.0 | 20.0 | 0.00 | 0.00 | 0.00 | 100 | 952.0 |
| 20260505085409 | 72 | 164 | 8.0 | 20.0 | 0.00 | 0.00 | 0.00 | 100 | 952.0 |
| 20260505085309 | 72 | 165 | 8.0 | 20.0 | 0.00 | 0.00 | 0.00 | 100 | 951.9 |
| 20260505085207 | 73 | 165 | 5.0 | 20.0 | 0.00 | 0.00 | 0.00 | 100 | 951.9 |
| 20260505085004 | 73 | 173 | 5.0 | 22.0 | 0.00 | 0.00 | 0.00 | 100 | 952.0 |
| 20260505084801 | 72 | 175 | 6.0 | 22.0 | 0.00 | 0.00 | 0.00 | 100 | 952.1 |
| 20260505084700 | 72 | 170 | 9.0 | 23.0 | 0.00 | 0.00 | 0.00 | 100 | 952.0 |
| 20260505084558 | 72 | 166 | 9.0 | 23.0 | 0.00 | 0.00 | 0.00 | 100 | 952.0 |
| 20260505084355 | 71 | 164 | 8.0 | 23.0 | 0.00 | 0.00 | 0.00 | 100 | 952.0 |
| 20260505084151 | 72 | 167 | 6.0 | 18.0 | 0.00 | 0.00 | 0.00 | 100 | 952.0 |
| 20260505084051 | 72 | 170 | 6.0 | 18.0 | 0.00 | 0.00 | 0.00 | 100 | 952.0 |
| 20260505083948 | 72 | 171 | 7.0 | 18.0 | 0.00 | 0.00 | 0.00 | 100 | 952.0 |
| 20260505083745 | 72 | 172 | 9.0 | 24.0 | 0.00 | 0.00 | 0.00 | 100 | 952.0 |
| 20260505083542 | 71 | 168 | 9.0 | 24.0 | 0.00 | 0.00 | 0.00 | 100 | 951.9 |
| 20260505083441 | 72 | 169 | 8.0 | 24.0 | 0.00 | 0.00 | 0.00 | 100 | 951.8 |
| 20260505083339 | 72 | 173 | 6.0 | 18.0 | 0.00 | 0.00 | 0.00 | 100 | 952.0 |
| 20260505083135 | 72 | 198 | 5.0 | 17.0 | 0.00 | 0.00 | 0.00 | 100 | 952.1 |
| 20260505082932 | 72 | 220 | 4.0 | 13.0 | 0.00 | 0.00 | 0.00 | 100 | 952.0 |
| 20260505082818 | 72 | 222 | 4.0 | 13.0 | 0.00 | 0.00 | 0.00 | 100 | 951.9 |
| 20260505082716 | 72 | 218 | 4.0 | 13.0 | 0.00 | 0.00 | 0.00 | 100 | 952.1 |
| 20260505082512 | 72 | 200 | 4.0 | 14.0 | 0.00 | 0.00 | 0.00 | 100 | 952.0 |
| 20260505082309 | 72 | 196 | 4.0 | 14.0 | 0.00 | 0.00 | 0.00 | 100 | 952.1 |
| 20260505082209 | 72 | 213 | 3.0 | 13.0 | 0.00 | 0.00 | 0.00 | 100 | 952.1 |
| 20260505082106 | 72 | 214 | 3.0 | 13.0 | 0.00 | 0.00 | 0.00 | 100 | 952.2 |
| 20260505081903 | 72 | 203 | 3.0 | 18.0 | 0.00 | 0.00 | 0.00 | 100 | 952.0 |
| 20260505081700 | 72 | 190 | 4.0 | 18.0 | 0.00 | 0.00 | 0.00 | 100 | 952.1 |
| 20260505081559 | 72 | 191 | 4.0 | 15.0 | 0.00 | 0.00 | 0.00 | 100 | 952.2 |
| 20260505081457 | 72 | 195 | 4.0 | 15.0 | 0.00 | 0.00 | 0.00 | 100 | 952.2 |
| 20260505081253 | 71 | 190 | 4.0 | 17.0 | 0.00 | 0.00 | 0.00 | 100 | 952.0 |
| 20260505081051 | 72 | 188 | 4.0 | 17.0 | 0.00 | 0.00 | 0.00 | 100 | 952.1 |
| 20260505080951 | 72 | 185 | 5.0 | 23.0 | 0.00 | 0.00 | 0.00 | 100 | 952.0 |
| 20260505080848 | 72 | 179 | 5.0 | 23.0 | 0.00 | 0.00 | 0.00 | 100 | 952.1 |
| 20260505080645 | 71 | 171 | 7.0 | 23.0 | 0.00 | 0.00 | 0.00 | 100 | 952.2 |
| 20260505080442 | 71 | 170 | 6.0 | 16.0 | 0.00 | 0.00 | 0.00 | 100 | 952.3 |
| 20260505080341 | 71 | 167 | 6.0 | 16.0 | 0.00 | 0.00 | 0.00 | 100 | 952.1 |
| 20260505080239 | 71 | 171 | 7.0 | 18.0 | 0.00 | 0.00 | 0.00 | 100 | 952.3 |
| 20260505080036 | 71 | 173 | 6.0 | 18.0 | 0.00 | 0.00 | 0.00 | 100 | 952.2 |
| 20260505075833 | 71 | 168 | 5.0 | 19.0 | 0.00 | 0.00 | 0.00 | 100 | 952.3 |
| 20260505075732 | 71 | 171 | 5.0 | 19.0 | 0.00 | 0.00 | 0.00 | 100 | 952.4 |
| 20260505075630 | 71 | 175 | 4.0 | 19.0 | 0.00 | 0.00 | 0.00 | 100 | 952.1 |
| 20260505075427 | 71 | 198 | 4.0 | 18.0 | 0.00 | 0.00 | 0.00 | 100 | 952.3 |
| 20260505075224 | 71 | 173 | 5.0 | 18.0 | 0.00 | 0.00 | 0.00 | 100 | 952.2 |
| 20260505075123 | 71 | 169 | 5.0 | 15.0 | 0.00 | 0.00 | 0.00 | 100 | 952.3 |
| 20260505075021 | 71 | 168 | 4.0 | 14.0 | 0.00 | 0.00 | 0.00 | 100 | 952.5 |
| 20260505074818 | 70 | 158 | 5.0 | 16.0 | 0.00 | 0.00 | 0.00 | 100 | 952.3 |
| 20260505074615 | 71 | 159 | 4.0 | 16.0 | 0.00 | 0.00 | 0.00 | 100 | 952.4 |
| 20260505074513 | 70 | 160 | 4.0 | 12.0 | 0.00 | 0.00 | 0.00 | 100 | 952.2 |
| 20260505074411 | 71 | 178 | 3.0 | 16.0 | 0.00 | 0.00 | 0.00 | 100 | 952.3 |
| 20260505074208 | 70 | 170 | 5.0 | 19.0 | 0.00 | 0.00 | 0.00 | 100 | 952.3 |
| 20260505074005 | 70 | 165 | 6.0 | 19.0 | 0.00 | 0.00 | 0.00 | 100 | 952.2 |
| 20260505073905 | 70 | 164 | 7.0 | 19.0 | 0.00 | 0.00 | 0.00 | 100 | 952.2 |
| 20260505073803 | 70 | 165 | 6.0 | 17.0 | 0.00 | 0.00 | 0.00 | 100 | 952.5 |
| 20260505073600 | 70 | 188 | 4.0 | 17.0 | 0.00 | 0.00 | 0.00 | 100 | 952.4 |
| 20260505073356 | 70 | 175 | 6.0 | 21.0 | 0.00 | 0.00 | 0.00 | 100 | 952.3 |
| 20260505073256 | 70 | 172 | 6.0 | 21.0 | 0.00 | 0.00 | 0.00 | 100 | 952.3 |
| 20260505073153 | 70 | 169 | 6.0 | 21.0 | 0.00 | 0.00 | 0.00 | 100 | 952.4 |
| 20260505072949 | 70 | 197 | 4.0 | 13.0 | 0.00 | 0.00 | 0.00 | 100 | 952.3 |
| 20260505072747 | 70 | 171 | 4.0 | 17.0 | 0.00 | 0.00 | 0.00 | 100 | 952.3 |
| 20260505072646 | 70 | 165 | 4.0 | 17.0 | 0.00 | 0.00 | 0.00 | 100 | 952.6 |
| 20260505072543 | 70 | 165 | 4.0 | 17.0 | 0.00 | 0.00 | 0.00 | 100 | 952.4 |
| 20260505072340 | 70 | 187 | 5.0 | 18.0 | 0.00 | 0.00 | 0.00 | 100 | 952.4 |
| 20260505072137 | 69 | 193 | 5.0 | 22.0 | 0.00 | 0.00 | 0.00 | 100 | 952.3 |
| 20260505072036 | 70 | 190 | 5.0 | 22.0 | 0.00 | 0.00 | 0.00 | 100 | 952.4 |
| 20260505071934 | 69 | 179 | 6.0 | 22.0 | 0.00 | 0.00 | 0.00 | 100 | 952.4 |
| 20260505071732 | 69 | 184 | 7.0 | 22.0 | 0.00 | 0.00 | 0.00 | 100 | 952.4 |
| 20260505071529 | 69 | 193 | 6.0 | 22.0 | 0.00 | 0.00 | 0.00 | 100 | 952.3 |
| 20260505071428 | 69 | 188 | 7.0 | 24.0 | 0.00 | 0.00 | 0.00 | 100 | 952.3 |
| 20260505071326 | 69 | 182 | 7.0 | 24.0 | 0.00 | 0.00 | 0.00 | 100 | 952.5 |
| 20260505071123 | 69 | 168 | 7.0 | 24.0 | 0.00 | 0.00 | 0.00 | 100 | 952.0 |
| 20260505070921 | 69 | 164 | 4.0 | 20.0 | 0.00 | 0.00 | 0.00 | 100 | 952.4 |
| 20260505070820 | 68 | 168 | 4.0 | 21.0 | 0.00 | 0.00 | 0.00 | 100 | 952.2 |
| 20260505070718 | 69 | 180 | 5.0 | 21.0 | 0.00 | 0.00 | 0.00 | 100 | 952.4 |
| 20260505070515 | 69 | 180 | 5.0 | 21.0 | 0.00 | 0.00 | 0.00 | 100 | 952.4 |
| 20260505070312 | 69 | 199 | 4.0 | 13.0 | 0.00 | 0.00 | 0.00 | 100 | 952.6 |
| 20260505070211 | 69 | 199 | 3.0 | 12.0 | 0.00 | 0.00 | 0.00 | 100 | 952.6 |
| 20260505070109 | 69 | 203 | 3.0 | 12.0 | 0.00 | 0.00 | 0.00 | 100 | 952.6 |
| 20260505065906 | 69 | 184 | 3.0 | 10.0 | 0.00 | 0.00 | 0.00 | 100 | 952.6 |
| 20260505065703 | 68 | 181 | 4.0 | 20.0 | 0.00 | 0.00 | 0.00 | 100 | 952.6 |
| 20260505065603 | 68 | 179 | 5.0 | 20.0 | 0.00 | 0.00 | 0.00 | 100 | 952.5 |
| 20260505065500 | 68 | 174 | 6.0 | 20.0 | 0.00 | 0.00 | 0.00 | 100 | 952.5 |
| 20260505065256 | 68 | 173 | 5.0 | 14.0 | 0.00 | 0.00 | 0.00 | 100 | 952.7 |
| 20260505065053 | 68 | 187 | 3.0 | 12.0 | 0.00 | 0.00 | 0.00 | 100 | 952.7 |
| 20260505064953 | 68 | 199 | 3.0 | 12.0 | 0.00 | 0.00 | 0.00 | 100 | 952.8 |
| 20260505064851 | 68 | 192 | 3.0 | 12.0 | 0.00 | 0.00 | 0.00 | 100 | 952.8 |
| 20260505064647 | 68 | 188 | 4.0 | 16.0 | 0.00 | 0.00 | 0.00 | 100 | 952.7 |
| 20260505064445 | 67 | 183 | 6.0 | 20.0 | 0.00 | 0.00 | 0.00 | 100 | 952.6 |
| 20260505064344 | 67 | 180 | 6.0 | 20.0 | 0.00 | 0.00 | 0.00 | 100 | 952.8 |
| 20260505064242 | 67 | 181 | 5.0 | 20.0 | 0.00 | 0.00 | 0.00 | 100 | 952.6 |
| 20260505064038 | 68 | 176 | 4.0 | 11.0 | 0.00 | 0.00 | 0.00 | 100 | 952.8 |
| 20260505063835 | 68 | 169 | 3.0 | 9.0 | 0.00 | 0.00 | 0.00 | 100 | 952.8 |
| 20260505063735 | 68 | 176 | 3.0 | 9.0 | 0.00 | 0.00 | 0.00 | 100 | 952.8 |
| 20260505063632 | 68 | 163 | 3.0 | 9.0 | 0.00 | 0.00 | 0.00 | 100 | 952.8 |
| 20260505063429 | 67 | 160 | 2.0 | 8.0 | 0.00 | 0.00 | 0.00 | 100 | 952.9 |
| 20260505063226 | 67 | 0 | 3.0 | 10.0 | 0.00 | 0.00 | 0.00 | 100 | 952.8 |
| 20260505063125 | 66 | 277 | 4.0 | 10.0 | 0.00 | 0.00 | 0.00 | 100 | 952.8 |
| 20260505063022 | 66 | 298 | 4.0 | 10.0 | 0.00 | 0.00 | 0.00 | 100 | 952.8 |
| 20260505062819 | 64 | 299 | 5.0 | 8.0 | 0.00 | 0.00 | 0.00 | 100 | 952.9 |
| 20260505062615 | 64 | 331 | 4.0 | 7.0 | 0.00 | 0.00 | 0.00 | 100 | 952.8 |
| 20260505062515 | 64 | 354 | 4.0 | 7.0 | 0.00 | 0.00 | 0.00 | 100 | 952.8 |
| 20260505062412 | 64 | 2 | 5.0 | 8.0 | 0.00 | 0.00 | 0.00 | 100 | 952.9 |
| 20260505062209 | 63 | 2 | 5.0 | 8.0 | 0.00 | 0.00 | 0.00 | 100 | 952.9 |
| 20260505062006 | 63 | 25 | 4.0 | 8.0 | 0.00 | 0.00 | 0.00 | 100 | 953.0 |
| 20260505061906 | 63 | 41 | 5.0 | 8.0 | 0.00 | 0.00 | 0.00 | 100 | 953.0 |
| 20260505061803 | 63 | 50 | 5.0 | 8.0 | 0.00 | 0.00 | 0.00 | 100 | 953.1 |
| 20260505061600 | 62 | 52 | 4.0 | 8.0 | 0.00 | 0.00 | 0.00 | 100 | 952.9 |
| 20260505061357 | 62 | 48 | 3.0 | 7.0 | 0.00 | 0.00 | 0.00 | 100 | 952.9 |
| 20260505061256 | 62 | 50 | 3.0 | 6.0 | 0.00 | 0.00 | 0.00 | 100 | 952.9 |
| 20260505061154 | 62 | 59 | 3.0 | 6.0 | 0.00 | 0.00 | 0.00 | 100 | 952.9 |
| 20260505060950 | 62 | 81 | 4.0 | 6.0 | 0.00 | 0.00 | 0.00 | 100 | 953.1 |
| 20260505060748 | 62 | 107 | 4.0 | 8.0 | 0.00 | 0.00 | 0.00 | 100 | 953.0 |
| 20260505060647 | 62 | 110 | 4.0 | 13.0 | 0.00 | 0.00 | 0.00 | 100 | 952.9 |
| 20260505060545 | 62 | 107 | 4.0 | 13.0 | 0.00 | 0.00 | 0.00 | 100 | 953.0 |
| 20260505060342 | 62 | 91 | 5.0 | 13.0 | 0.00 | 0.00 | 0.00 | 100 | 953.0 |
| 20260505060140 | 62 | 81 | 5.0 | 8.0 | 0.00 | 0.00 | 0.00 | 100 | 953.0 |
| 20260505060039 | 62 | 82 | 5.0 | 9.0 | 0.00 | 0.00 | 0.00 | 100 | 952.9 |
| 20260505055738 | 62 | 89 | 4.0 | 9.0 | 0.00 | 0.00 | 0.00 | 100 | 953.0 |
| 20260505055638 | 62 | 91 | 3.0 | 8.0 | 0.00 | 0.00 | 0.00 | 100 | 953.0 |
| 20260505055535 | 62 | 87 | 4.0 | 8.0 | 0.00 | 0.00 | 0.00 | 100 | 952.9 |
| 20260505055332 | 62 | 70 | 2.0 | 8.0 | 0.00 | 0.00 | 0.00 | 100 | 953.0 |
| 20260505055128 | 61 | 70 | 2.0 | 7.0 | 0.00 | 0.00 | 0.00 | 100 | 953.1 |
| 20260505055028 | 60 | 69 | 3.0 | 7.0 | 0.00 | 0.00 | 0.00 | 100 | 953.1 |
| 20260505054926 | 60 | 74 | 4.0 | 7.0 | 0.00 | 0.00 | 0.00 | 100 | 953.1 |
| 20260505054723 | 60 | 76 | 6.0 | 9.0 | 0.00 | 0.00 | 0.00 | 100 | 953.0 |
| 20260505054519 | 59 | 78 | 5.0 | 9.0 | 0.00 | 0.00 | 0.00 | 100 | 953.1 |
| 20260505054406 | 58 | 80 | 5.0 | 8.0 | 0.00 | 0.00 | 0.00 | 100 | 953.0 |
| 20260505054303 | 58 | 88 | 4.0 | 8.0 | 0.00 | 0.00 | 0.00 | 100 | 953.0 |
| 20260505054059 | 58 | 119 | 4.0 | 7.0 | 0.00 | 0.00 | 0.00 | 100 | 953.0 |
| 20260505053856 | 57 | 129 | 4.0 | 7.0 | 0.00 | 0.00 | 0.00 | 100 | 953.2 |
| 20260505053755 | 57 | 136 | 4.0 | 7.0 | 0.00 | 0.00 | 0.00 | 100 | 953.1 |
| 20260505053653 | 57 | 135 | 4.0 | 7.0 | 0.00 | 0.00 | 0.00 | 100 | 953.2 |
| 20260505053450 | 56 | 130 | 3.0 | 5.0 | 0.00 | 0.00 | 0.00 | 100 | 953.1 |
| 20260505053247 | 56 | 127 | 3.0 | 7.0 | 0.00 | 0.00 | 0.00 | 100 | 953.1 |
| 20260505053147 | 55 | 128 | 3.0 | 7.0 | 0.00 | 0.00 | 0.00 | 100 | 953.2 |
| 20260505053044 | 55 | 129 | 4.0 | 7.0 | 0.00 | 0.00 | 0.00 | 100 | 953.2 |
| 20260505052841 | 55 | 132 | 3.0 | 7.0 | 0.00 | 0.00 | 0.00 | 100 | 953.2 |
| 20260505052637 | 55 | 135 | 2.0 | 5.0 | 0.00 | 0.00 | 0.00 | 100 | 953.1 |
| 20260505052536 | 54 | 133 | 2.0 | 4.0 | 0.00 | 0.00 | 0.00 | 100 | 953.2 |
| 20260505052434 | 54 | 130 | 2.0 | 4.0 | 0.00 | 0.00 | 0.00 | 100 | 953.2 |
| 20260505052230 | 54 | 115 | 2.0 | 4.0 | 0.00 | 0.00 | 0.00 | 100 | 953.2 |
| 20260505052027 | 54 | 121 | 1.0 | 3.0 | 0.00 | 0.00 | 0.00 | 100 | 953.2 |
| 20260505051926 | 54 | 131 | 1.0 | 3.0 | 0.00 | 0.00 | 0.00 | 100 | 953.2 |
| 20260505051820 | 54 | 131 | 1.0 | 3.0 | 0.00 | 0.00 | 0.00 | 100 | 953.2 |
| 20260505051616 | 54 | 119 | 1.0 | 2.0 | 0.00 | 0.00 | 0.00 | 100 | 953.2 |
| 20260505051413 | 53 | 129 | 2.0 | 4.0 | 0.00 | 0.00 | 0.00 | 100 | 953.3 |
| 20260505051313 | 53 | 131 | 2.0 | 4.0 | 0.00 | 0.00 | 0.00 | 100 | 953.2 |
| 20260505051210 | 53 | 132 | 2.0 | 4.0 | 0.00 | 0.00 | 0.00 | 100 | 953.3 |
| 20260505051007 | 53 | 106 | 2.0 | 5.0 | 0.00 | 0.00 | 0.00 | 100 | 953.2 |
| 20260505050803 | 53 | 111 | 2.0 | 5.0 | 0.00 | 0.00 | 0.00 | 100 | 953.2 |
| 20260505050703 | 53 | 116 | 2.0 | 4.0 | 0.00 | 0.00 | 0.00 | 100 | 953.2 |
| 20260505050600 | 53 | 123 | 1.0 | 4.0 | 0.00 | 0.00 | 0.00 | 100 | 953.3 |
| 20260505050357 | 54 | 0 | 0.0 | 2.0 | 0.00 | 0.00 | 0.00 | 100 | 953.4 |
| 20260505050153 | 53 | 70 | 1.0 | 3.0 | 0.00 | 0.00 | 0.00 | 100 | 953.3 |
| 20260505041748 | 50 | 152 | 2.0 | 5.0 | 0.00 | 0.00 | 0.00 | 100 | 953.5 |
| 20260505041642 | 50 | 144 | 2.0 | 5.0 | 0.00 | 0.00 | 0.00 | 100 | 953.6 |
| 20260505041439 | 50 | 132 | 3.0 | 5.0 | 0.00 | 0.00 | 0.00 | 100 | 953.5 |
| 20260505041236 | 50 | 133 | 2.0 | 4.0 | 0.00 | 0.00 | 0.00 | 100 | 953.5 |
| 20260505041135 | 50 | 134 | 2.0 | 3.0 | 0.00 | 0.00 | 0.00 | 100 | 953.6 |
| 20260505041033 | 50 | 151 | 2.0 | 4.0 | 0.00 | 0.00 | 0.00 | 100 | 953.6 |
| 20260505040830 | 50 | 155 | 3.0 | 5.0 | 0.00 | 0.00 | 0.00 | 100 | 953.5 |
| 20260505040626 | 49 | 153 | 3.0 | 5.0 | 0.00 | 0.00 | 0.00 | 100 | 953.6 |
| 20260505040526 | 49 | 148 | 3.0 | 5.0 | 0.00 | 0.00 | 0.00 | 100 | 953.6 |
| 20260505040424 | 49 | 148 | 3.0 | 6.0 | 0.00 | 0.00 | 0.00 | 100 | 953.5 |
| 20260505040221 | 49 | 149 | 3.0 | 6.0 | 0.00 | 0.00 | 0.00 | 100 | 953.5 |
| 20260505040017 | 49 | 151 | 2.0 | 4.0 | 0.00 | 0.00 | 0.00 | 100 | 953.5 |
| 20260505035916 | 50 | 136 | 2.0 | 4.0 | 0.00 | 0.00 | 0.00 | 100 | 953.5 |
| 20260505035814 | 50 | 129 | 2.0 | 4.0 | 0.00 | 0.00 | 0.00 | 100 | 953.5 |
| 20260505035610 | 50 | 116 | 2.0 | 3.0 | 0.00 | 0.00 | 0.00 | 100 | 953.5 |
| 20260505035407 | 50 | 120 | 2.0 | 3.0 | 0.00 | 0.00 | 0.00 | 100 | 953.5 |
| 20260505035306 | 50 | 113 | 2.0 | 3.0 | 0.00 | 0.00 | 0.00 | 100 | 953.4 |
| 20260505035204 | 50 | 109 | 2.0 | 3.0 | 0.00 | 0.00 | 0.00 | 100 | 953.7 |
| 20260505035000 | 51 | 77 | 1.0 | 3.0 | 0.00 | 0.00 | 0.00 | 100 | 953.6 |
| 20260505034757 | 50 | 346 | 1.0 | 3.0 | 0.00 | 0.00 | 0.00 | 100 | 953.7 |
| 20260505034656 | 50 | 347 | 2.0 | 5.0 | 0.00 | 0.00 | 0.00 | 100 | 953.6 |
| 20260505034553 | 50 | 350 | 3.0 | 5.0 | 0.00 | 0.00 | 0.00 | 100 | 953.6 |
| 20260505034350 | 51 | 348 | 3.0 | 5.0 | 0.00 | 0.00 | 0.00 | 100 | 953.6 |
| 20260505034147 | 51 | 302 | 2.0 | 3.0 | 0.00 | 0.00 | 0.00 | 100 | 953.6 |
| 20260505034046 | 50 | 286 | 1.0 | 3.0 | 0.00 | 0.00 | 0.00 | 100 | 953.6 |
| 20260505033944 | 50 | 262 | 1.0 | 2.0 | 0.00 | 0.00 | 0.00 | 100 | 953.6 |
| 20260505033741 | 50 | 203 | 1.0 | 3.0 | 0.00 | 0.00 | 0.00 | 100 | 953.6 |
| 20260505033537 | 50 | 188 | 2.0 | 4.0 | 0.00 | 0.00 | 0.00 | 100 | 953.6 |
| 20260505033437 | 50 | 187 | 2.0 | 4.0 | 0.00 | 0.00 | 0.00 | 100 | 953.7 |
| 20260505033335 | 50 | 182 | 2.0 | 4.0 | 0.00 | 0.00 | 0.00 | 100 | 953.7 |
| 20260505033132 | 50 | 176 | 2.0 | 4.0 | 0.00 | 0.00 | 0.00 | 100 | 953.6 |
| 20260505032928 | 50 | 173 | 2.0 | 5.0 | 0.00 | 0.00 | 0.00 | 100 | 953.7 |
| 20260505032828 | 50 | 174 | 2.0 | 5.0 | 0.00 | 0.00 | 0.00 | 100 | 953.7 |
| 20260505032725 | 50 | 174 | 2.0 | 5.0 | 0.00 | 0.00 | 0.00 | 100 | 953.7 |
| 20260505032522 | 50 | 174 | 2.0 | 4.0 | 0.00 | 0.00 | 0.00 | 100 | 953.7 |
| 20260505032319 | 50 | 150 | 2.0 | 4.0 | 0.00 | 0.00 | 0.00 | 100 | 953.7 |
| 20260505032218 | 51 | 133 | 2.0 | 4.0 | 0.00 | 0.00 | 0.00 | 100 | 953.7 |
| 20260505032115 | 51 | 71 | 2.0 | 3.0 | 0.00 | 0.00 | 0.00 | 100 | 953.7 |
| 20260505031912 | 51 | 38 | 1.0 | 2.0 | 0.00 | 0.00 | 0.00 | 100 | 953.8 |
| 20260505031709 | 51 | 15 | 1.0 | 2.0 | 0.00 | 0.00 | 0.00 | 100 | 953.8 |
| 20260505031608 | 51 | 10 | 1.0 | 2.0 | 0.00 | 0.00 | 0.00 | 100 | 953.8 |
| 20260505031503 | 51 | 0 | 1.0 | 2.0 | 0.00 | 0.00 | 0.00 | 100 | 953.7 |
| 20260505031300 | 51 | 352 | 0.0 | 2.0 | 0.00 | 0.00 | 0.00 | 100 | 953.9 |
| 20260505031056 | 51 | 0 | 0.0 | 2.0 | 0.00 | 0.00 | 0.00 | 100 | 954.0 |
| 20260505030956 | 51 | 199 | 1.0 | 3.0 | 0.00 | 0.00 | 0.00 | 100 | 953.8 |
| 20260505030854 | 51 | 206 | 1.0 | 3.0 | 0.00 | 0.00 | 0.00 | 100 | 953.8 |
| 20260505030651 | 50 | 228 | 1.0 | 3.0 | 0.00 | 0.00 | 0.00 | 100 | 953.9 |
| 20260505030435 | 51 | 0 | 1.0 | 2.0 | 0.00 | 0.00 | 0.00 | 100 | 953.9 |
| 20260505030334 | 51 | 0 | 1.0 | 2.0 | 0.00 | 0.00 | 0.00 | 100 | 954.0 |
| 20260505030231 | 51 | 0 | 1.0 | 2.0 | 0.00 | 0.00 | 0.00 | 100 | 953.9 |
| 20260505030028 | 51 | 46 | 1.0 | 2.0 | 0.00 | 0.00 | 0.00 | 100 | 953.9 |
| 20260505025824 | 51 | 322 | 2.0 | 4.0 | 0.00 | 0.00 | 0.00 | 100 | 954.0 |
| 20260505025724 | 51 | 299 | 2.0 | 5.0 | 0.00 | 0.00 | 0.00 | 100 | 954.0 |
| 20260505025621 | 51 | 295 | 3.0 | 5.0 | 0.00 | 0.00 | 0.00 | 100 | 954.0 |
| 20260505025418 | 51 | 298 | 3.0 | 5.0 | 0.00 | 0.00 | 0.00 | 100 | 954.0 |
| 20260505025215 | 51 | 305 | 3.0 | 5.0 | 0.00 | 0.00 | 0.00 | 100 | 954.0 |
| 20260505025114 | 51 | 312 | 3.0 | 5.0 | 0.00 | 0.00 | 0.00 | 100 | 954.0 |
| 20260505025012 | 51 | 317 | 4.0 | 5.0 | 0.00 | 0.00 | 0.00 | 100 | 954.1 |
| 20260505024808 | 51 | 322 | 4.0 | 5.0 | 0.00 | 0.00 | 0.00 | 100 | 954.1 |
| 20260505024605 | 51 | 312 | 3.0 | 5.0 | 0.00 | 0.00 | 0.00 | 100 | 954.2 |
| 20260505024503 | 51 | 308 | 4.0 | 5.0 | 0.00 | 0.00 | 0.00 | 100 | 954.2 |
| 20260505024401 | 51 | 306 | 4.0 | 5.0 | 0.00 | 0.00 | 0.00 | 100 | 954.1 |
| 20260505024158 | 51 | 302 | 3.0 | 5.0 | 0.00 | 0.00 | 0.00 | 100 | 954.1 |
| 20260505023955 | 51 | 294 | 2.0 | 4.0 | 0.00 | 0.00 | 0.00 | 100 | 954.2 |
| 20260505023854 | 51 | 292 | 2.0 | 3.0 | 0.00 | 0.00 | 0.00 | 100 | 954.2 |
| 20260505023751 | 51 | 296 | 2.0 | 4.0 | 0.00 | 0.00 | 0.00 | 100 | 954.1 |
| 20260505023548 | 51 | 303 | 2.0 | 4.0 | 0.00 | 0.00 | 0.00 | 100 | 954.2 |
| 20260505023345 | 50 | 307 | 2.0 | 3.0 | 0.00 | 0.00 | 0.00 | 100 | 954.3 |
| 20260505023245 | 50 | 302 | 2.0 | 3.0 | 0.00 | 0.00 | 0.00 | 100 | 954.2 |
| 20260505023143 | 50 | 301 | 2.0 | 3.0 | 0.00 | 0.00 | 0.00 | 100 | 954.3 |
| 20260505022940 | 50 | 298 | 2.0 | 3.0 | 0.00 | 0.00 | 0.00 | 100 | 954.3 |
| 20260505022737 | 51 | 304 | 2.0 | 3.0 | 0.00 | 0.00 | 0.00 | 100 | 954.3 |
| 20260505022636 | 51 | 304 | 2.0 | 3.0 | 0.00 | 0.00 | 0.00 | 100 | 954.2 |
| 20260505022534 | 50 | 303 | 2.0 | 4.0 | 0.00 | 0.00 | 0.00 | 100 | 954.2 |
| 20260505022330 | 50 | 310 | 3.0 | 4.0 | 0.00 | 0.00 | 0.00 | 100 | 954.3 |
| 20260505022127 | 51 | 323 | 2.0 | 4.0 | 0.00 | 0.00 | 0.00 | 100 | 954.3 |
| 20260505022027 | 51 | 319 | 2.0 | 4.0 | 0.00 | 0.00 | 0.00 | 100 | 954.3 |
| 20260505021924 | 51 | 314 | 2.0 | 4.0 | 0.00 | 0.00 | 0.00 | 100 | 954.3 |
| 20260505021721 | 51 | 309 | 3.0 | 4.0 | 0.00 | 0.00 | 0.00 | 100 | 954.3 |
| 20260505021518 | 51 | 317 | 3.0 | 4.0 | 0.00 | 0.00 | 0.00 | 100 | 954.3 |
| 20260505021417 | 51 | 317 | 3.0 | 4.0 | 0.00 | 0.00 | 0.00 | 100 | 954.4 |
| 20260505021311 | 51 | 316 | 3.0 | 4.0 | 0.00 | 0.00 | 0.00 | 100 | 954.3 |
| 20260505021108 | 51 | 311 | 2.0 | 3.0 | 0.00 | 0.00 | 0.00 | 100 | 954.4 |
| 20260505020905 | 51 | 303 | 2.0 | 3.0 | 0.00 | 0.00 | 0.00 | 100 | 954.4 |
| 20260505020804 | 51 | 297 | 2.0 | 3.0 | 0.00 | 0.00 | 0.00 | 100 | 954.3 |
| 20260505020702 | 51 | 274 | 2.0 | 3.0 | 0.00 | 0.00 | 0.00 | 100 | 954.3 |
| 20260505020458 | 50 | 282 | 2.0 | 3.0 | 0.00 | 0.00 | 0.00 | 100 | 954.4 |
| 20260505020255 | 51 | 321 | 2.0 | 3.0 | 0.00 | 0.00 | 0.00 | 100 | 954.4 |
| 20260505020155 | 50 | 326 | 2.0 | 3.0 | 0.00 | 0.00 | 0.00 | 100 | 954.5 |
| 20260505020053 | 50 | 314 | 2.0 | 3.0 | 0.00 | 0.00 | 0.00 | 100 | 954.4 |
| 20260505015849 | 50 | 279 | 2.0 | 4.0 | 0.00 | 0.00 | 0.00 | 100 | 954.5 |
| 20260505015646 | 48 | 279 | 2.0 | 4.0 | 0.00 | 0.00 | 0.00 | 100 | 954.5 |
| 20260505015545 | 48 | 283 | 2.0 | 4.0 | 0.00 | 0.00 | 0.00 | 100 | 954.5 |
| 20260505015443 | 48 | 269 | 2.0 | 4.0 | 0.00 | 0.00 | 0.00 | 100 | 954.5 |
| 20260505015240 | 49 | 300 | 1.0 | 3.0 | 0.00 | 0.00 | 0.00 | 100 | 954.6 |
| 20260505015038 | 48 | 321 | 2.0 | 5.0 | 0.00 | 0.00 | 0.00 | 100 | 954.5 |
| 20260505014937 | 48 | 323 | 3.0 | 5.0 | 0.00 | 0.00 | 0.00 | 100 | 954.6 |
| 20260505014835 | 49 | 323 | 2.0 | 5.0 | 0.00 | 0.00 | 0.00 | 100 | 954.6 |
| 20260505014632 | 50 | 321 | 1.0 | 2.0 | 0.00 | 0.00 | 0.00 | 100 | 954.5 |
| 20260505014428 | 50 | 355 | 2.0 | 3.0 | 0.00 | 0.00 | 0.00 | 100 | 954.6 |
| 20260505014328 | 50 | 7 | 2.0 | 3.0 | 0.00 | 0.00 | 0.00 | 100 | 954.6 |
| 20260505014226 | 50 | 8 | 2.0 | 3.0 | 0.00 | 0.00 | 0.00 | 100 | 954.6 |
| 20260505014022 | 50 | 6 | 2.0 | 3.0 | 0.00 | 0.00 | 0.00 | 100 | 954.6 |
| 20260505013819 | 51 | 351 | 2.0 | 2.0 | 0.00 | 0.00 | 0.00 | 100 | 954.7 |
| 20260505013718 | 50 | 341 | 2.0 | 2.0 | 0.00 | 0.00 | 0.00 | 100 | 954.6 |
| 20260505013616 | 50 | 333 | 1.0 | 2.0 | 0.00 | 0.00 | 0.00 | 100 | 954.6 |
| 20260505013412 | 50 | 319 | 1.0 | 3.0 | 0.00 | 0.00 | 0.00 | 100 | 954.6 |
| 20260505013209 | 51 | 131 | 1.0 | 5.0 | 0.00 | 0.00 | 0.00 | 100 | 954.6 |
| 20260505013108 | 51 | 136 | 2.0 | 5.0 | 0.00 | 0.00 | 0.00 | 100 | 954.6 |
| 20260505013005 | 52 | 143 | 2.0 | 5.0 | 0.00 | 0.00 | 0.00 | 100 | 954.6 |
| 20260505012803 | 50 | 169 | 2.0 | 5.0 | 0.00 | 0.00 | 0.00 | 100 | 954.6 |
| 20260505012559 | 50 | 176 | 2.0 | 4.0 | 0.00 | 0.00 | 0.00 | 100 | 954.6 |
| 20260505012459 | 50 | 179 | 2.0 | 4.0 | 0.00 | 0.00 | 0.00 | 100 | 954.6 |
| 20260505012356 | 50 | 183 | 2.0 | 4.0 | 0.00 | 0.00 | 0.00 | 100 | 954.5 |
| 20260505012153 | 50 | 304 | 1.0 | 3.0 | 0.00 | 0.00 | 0.00 | 100 | 954.5 |
| 20260505011950 | 50 | 310 | 1.0 | 2.0 | 0.00 | 0.00 | 0.00 | 100 | 954.6 |
| 20260505011849 | 50 | 303 | 1.0 | 2.0 | 0.00 | 0.00 | 0.00 | 100 | 954.6 |
| 20260505011747 | 50 | 0 | 1.0 | 2.0 | 0.00 | 0.00 | 0.00 | 100 | 954.7 |
| 20260505011544 | 51 | 0 | 1.0 | 4.0 | 0.00 | 0.00 | 0.00 | 100 | 954.7 |
| 20260505011341 | 51 | 296 | 2.0 | 4.0 | 0.00 | 0.00 | 0.00 | 100 | 954.7 |
| 20260505011241 | 50 | 304 | 2.0 | 4.0 | 0.00 | 0.00 | 0.00 | 100 | 954.7 |
| 20260505011134 | 50 | 0 | 2.0 | 4.0 | 0.00 | 0.00 | 0.00 | 100 | 954.7 |
| 20260505010931 | 52 | 147 | 2.0 | 4.0 | 0.00 | 0.00 | 0.00 | 100 | 954.7 |
| 20260505010728 | 52 | 142 | 1.0 | 4.0 | 0.00 | 0.00 | 0.00 | 100 | 954.7 |
| 20260505010627 | 52 | 0 | 1.0 | 3.0 | 0.00 | 0.00 | 0.00 | 100 | 954.7 |
| 20260505010525 | 51 | 311 | 1.0 | 2.0 | 0.00 | 0.00 | 0.00 | 100 | 954.6 |
| 20260505010322 | 51 | 0 | 1.0 | 3.0 | 0.00 | 0.00 | 0.00 | 100 | 954.7 |
| 20260505010119 | 52 | 156 | 1.0 | 3.0 | 0.00 | 0.00 | 0.00 | 100 | 954.7 |
| 20260505010018 | 52 | 166 | 1.0 | 3.0 | 0.00 | 0.00 | 0.00 | 100 | 954.7 |
| 20260505005915 | 52 | 0 | 1.0 | 2.0 | 0.00 | 0.00 | 0.00 | 100 | 954.7 |
| 20260505005712 | 52 | 0 | 0.0 | 2.0 | 0.00 | 0.00 | 0.00 | 100 | 954.7 |
| 20260505005509 | 52 | 168 | 1.0 | 2.0 | 0.00 | 0.00 | 0.00 | 100 | 954.7 |
| 20260505005408 | 52 | 160 | 1.0 | 2.0 | 0.00 | 0.00 | 0.00 | 100 | 954.7 |
| 20260505005306 | 52 | 161 | 1.0 | 2.0 | 0.00 | 0.00 | 0.00 | 100 | 954.7 |
| 20260505005103 | 52 | 168 | 1.0 | 2.0 | 0.00 | 0.00 | 0.00 | 100 | 954.7 |
| 20260505004900 | 51 | 0 | 0.0 | 2.0 | 0.00 | 0.00 | 0.00 | 100 | 954.8 |
| 20260505004759 | 51 | 0 | 1.0 | 3.0 | 0.00 | 0.00 | 0.00 | 100 | 954.7 |
| 20260505004656 | 52 | 151 | 1.0 | 4.0 | 0.00 | 0.00 | 0.00 | 100 | 954.8 |
| 20260505004454 | 53 | 130 | 2.0 | 4.0 | 0.00 | 0.00 | 0.00 | 100 | 954.7 |
| 20260505004250 | 53 | 148 | 3.0 | 4.0 | 0.00 | 0.00 | 0.00 | 100 | 954.8 |
| 20260505004149 | 53 | 152 | 3.0 | 5.0 | 0.00 | 0.00 | 0.00 | 100 | 954.8 |
| 20260505004047 | 52 | 155 | 3.0 | 6.0 | 0.00 | 0.00 | 0.00 | 100 | 954.7 |
| 20260505003844 | 52 | 156 | 4.0 | 6.0 | 0.00 | 0.00 | 0.00 | 100 | 954.8 |
| 20260505003641 | 52 | 167 | 2.0 | 5.0 | 0.00 | 0.00 | 0.00 | 100 | 954.7 |
| 20260505003540 | 51 | 177 | 1.0 | 4.0 | 0.00 | 0.00 | 0.00 | 100 | 954.7 |
| 20260505003438 | 51 | 192 | 0.0 | 2.0 | 0.00 | 0.00 | 0.00 | 100 | 954.8 |
| 20260505003235 | 51 | 0 | 0.0 | 2.0 | 0.00 | 0.00 | 0.00 | 100 | 954.8 |
| 20260505003032 | 51 | 0 | 0.0 | 1.0 | 0.00 | 0.00 | 0.00 | 100 | 954.8 |
| 20260505002932 | 51 | 191 | 1.0 | 3.0 | 0.00 | 0.00 | 0.00 | 100 | 954.8 |
| 20260505002830 | 51 | 185 | 0.0 | 3.0 | 0.00 | 0.00 | 0.00 | 100 | 955.0 |
| 20260505002627 | 51 | 0 | 0.0 | 3.0 | 0.00 | 0.00 | 0.00 | 100 | 954.9 |
| 20260505002413 | 51 | 286 | 1.0 | 3.0 | 0.00 | 0.00 | 0.00 | 100 | 954.9 |
| 20260505002313 | 51 | 300 | 2.0 | 3.0 | 0.00 | 0.00 | 0.00 | 100 | 954.9 |
| 20260505002210 | 51 | 296 | 2.0 | 3.0 | 0.00 | 0.00 | 0.00 | 100 | 954.9 |
| 20260505002007 | 51 | 305 | 1.0 | 3.0 | 0.00 | 0.00 | 0.00 | 100 | 954.9 |
| 20260505001804 | 51 | 0 | 0.0 | 3.0 | 0.00 | 0.00 | 0.00 | 100 | 954.9 |
| 20260505001704 | 51 | 0 | 0.0 | 1.0 | 0.00 | 0.00 | 0.00 | 100 | 955.0 |
| 20260505001601 | 51 | 263 | 1.0 | 3.0 | 0.00 | 0.00 | 0.00 | 100 | 955.0 |
| 20260505001359 | 51 | 287 | 2.0 | 4.0 | 0.00 | 0.00 | 0.00 | 100 | 955.0 |
| 20260505001156 | 51 | 301 | 3.0 | 4.0 | 0.00 | 0.00 | 0.00 | 100 | 955.0 |
| 20260505001056 | 51 | 300 | 3.0 | 4.0 | 0.00 | 0.00 | 0.00 | 100 | 955.1 |
| 20260505000950 | 51 | 302 | 3.0 | 5.0 | 0.00 | 0.00 | 0.00 | 100 | 955.1 |
| 20260505000747 | 51 | 298 | 3.0 | 5.0 | 0.00 | 0.00 | 0.00 | 100 | 955.1 |
| 20260505000543 | 51 | 288 | 2.0 | 4.0 | 0.00 | 0.00 | 0.00 | 100 | 955.1 |
| 20260505000443 | 51 | 294 | 2.0 | 4.0 | 0.00 | 0.00 | 0.00 | 100 | 955.1 |
| 20260505000340 | 51 | 299 | 2.0 | 4.0 | 0.00 | 0.00 | 0.00 | 100 | 955.2 |
| 20260505000137 | 51 | 308 | 2.0 | 4.0 | 0.00 | 0.00 | 0.00 | 100 | 955.1 |
| 20260504235934 | 51 | 314 | 2.0 | 4.0 | 0.00 | 0.00 | 0.00 | 100 | 955.1 |
| 20260504235833 | 51 | 320 | 2.0 | 4.0 | 0.00 | 0.00 | 0.00 | 100 | 955.2 |
| 20260504235731 | 51 | 322 | 2.0 | 3.0 | 0.00 | 0.00 | 0.00 | 100 | 955.2 |
| 20260504235527 | 51 | 305 | 2.0 | 3.0 | 0.00 | 0.00 | 0.00 | 100 | 955.2 |
| 20260504235324 | 51 | 302 | 1.0 | 2.0 | 0.00 | 0.00 | 0.00 | 100 | 955.2 |
| 20260504235224 | 51 | 301 | 1.0 | 2.0 | 0.00 | 0.00 | 0.00 | 100 | 955.2 |
| 20260504235121 | 51 | 311 | 2.0 | 3.0 | 0.00 | 0.00 | 0.00 | 100 | 955.3 |
| 20260504234918 | 51 | 330 | 2.0 | 3.0 | 0.00 | 0.00 | 0.00 | 100 | 955.3 |
| 20260504234715 | 51 | 337 | 3.0 | 4.0 | 0.00 | 0.00 | 0.00 | 100 | 955.3 |
| 20260504234614 | 51 | 334 | 3.0 | 4.0 | 0.00 | 0.00 | 0.00 | 100 | 955.2 |
| 20260504234511 | 51 | 326 | 3.0 | 4.0 | 0.00 | 0.00 | 0.00 | 100 | 955.2 |
| 20260504234308 | 51 | 320 | 3.0 | 4.0 | 0.00 | 0.00 | 0.00 | 100 | 955.3 |
| 20260504234105 | 51 | 316 | 2.0 | 4.0 | 0.00 | 0.00 | 0.00 | 100 | 955.4 |
| 20260504234004 | 51 | 322 | 2.0 | 4.0 | 0.00 | 0.00 | 0.00 | 100 | 955.3 |
| 20260504233902 | 51 | 356 | 3.0 | 5.0 | 0.00 | 0.00 | 0.00 | 100 | 955.3 |
| 20260504233658 | 52 | 3 | 2.0 | 5.0 | 0.00 | 0.00 | 0.00 | 100 | 955.2 |
| 20260504233455 | 52 | 4 | 2.0 | 5.0 | 0.00 | 0.00 | 0.00 | 100 | 955.3 |
| 20260504233354 | 52 | 8 | 2.0 | 4.0 | 0.00 | 0.00 | 0.00 | 100 | 955.3 |
| 20260504233252 | 52 | 7 | 2.0 | 4.0 | 0.00 | 0.00 | 0.00 | 100 | 955.3 |
| 20260504233048 | 52 | 358 | 1.0 | 2.0 | 0.00 | 0.00 | 0.00 | 100 | 955.3 |
| 20260504232845 | 53 | 151 | 2.0 | 5.0 | 0.00 | 0.00 | 0.00 | 100 | 955.3 |
| 20260504232745 | 53 | 151 | 2.0 | 5.0 | 0.00 | 0.00 | 0.00 | 100 | 955.4 |
| 20260504232643 | 53 | 152 | 4.0 | 6.0 | 0.00 | 0.00 | 0.00 | 100 | 955.3 |
| 20260504232440 | 53 | 140 | 5.0 | 8.0 | 0.00 | 0.00 | 0.00 | 100 | 955.4 |
| 20260504232236 | 54 | 126 | 6.0 | 8.0 | 0.00 | 0.00 | 0.00 | 100 | 955.3 |
| 20260504232135 | 54 | 126 | 6.0 | 8.0 | 0.00 | 0.00 | 0.00 | 100 | 955.3 |
| 20260504232033 | 53 | 126 | 6.0 | 8.0 | 0.00 | 0.00 | 0.00 | 100 | 955.3 |
| 20260504231830 | 53 | 132 | 6.0 | 8.0 | 0.00 | 0.00 | 0.00 | 100 | 955.3 |
| 20260504231628 | 53 | 155 | 6.0 | 8.0 | 0.00 | 0.00 | 0.00 | 100 | 955.3 |
| 20260504231527 | 53 | 157 | 5.0 | 7.0 | 0.00 | 0.00 | 0.00 | 100 | 955.4 |
| 20260504231424 | 53 | 153 | 5.0 | 8.0 | 0.00 | 0.00 | 0.00 | 100 | 955.4 |
| 20260504231221 | 53 | 133 | 5.0 | 9.0 | 0.00 | 0.00 | 0.00 | 100 | 955.3 |
| 20260504231018 | 53 | 130 | 5.0 | 7.0 | 0.00 | 0.00 | 0.00 | 100 | 955.4 |
| 20260504230917 | 53 | 130 | 5.0 | 9.0 | 0.00 | 0.00 | 0.00 | 100 | 955.3 |
| 20260504230811 | 53 | 134 | 6.0 | 9.0 | 0.00 | 0.00 | 0.00 | 100 | 955.4 |
| 20260504230608 | 54 | 147 | 6.0 | 9.0 | 0.00 | 0.00 | 0.00 | 100 | 955.4 |
| 20260504230405 | 53 | 150 | 6.0 | 8.0 | 0.00 | 0.00 | 0.00 | 100 | 955.4 |
| 20260504230304 | 53 | 151 | 6.0 | 9.0 | 0.00 | 0.00 | 0.00 | 100 | 955.5 |
| 20260504230201 | 53 | 149 | 6.0 | 9.0 | 0.00 | 0.00 | 0.00 | 100 | 955.4 |
| 20260504225958 | 54 | 137 | 6.0 | 9.0 | 0.00 | 0.00 | 0.00 | 100 | 955.5 |
| 20260504225755 | 54 | 132 | 5.0 | 8.0 | 0.00 | 0.00 | 0.00 | 100 | 955.5 |
| 20260504225654 | 54 | 132 | 5.0 | 7.0 | 0.00 | 0.00 | 0.00 | 100 | 955.5 |
| 20260504225551 | 54 | 130 | 5.0 | 7.0 | 0.00 | 0.00 | 0.00 | 100 | 955.5 |
| 20260504225348 | 54 | 131 | 4.0 | 7.0 | 0.00 | 0.00 | 0.00 | 100 | 955.5 |
| 20260504225145 | 54 | 130 | 4.0 | 8.0 | 0.00 | 0.00 | 0.00 | 100 | 955.6 |
| 20260504225044 | 54 | 123 | 5.0 | 9.0 | 0.00 | 0.00 | 0.00 | 100 | 955.6 |
| 20260504224942 | 54 | 122 | 4.0 | 9.0 | 0.00 | 0.00 | 0.00 | 100 | 955.6 |
| 20260504224738 | 54 | 128 | 4.0 | 9.0 | 0.00 | 0.00 | 0.00 | 100 | 955.6 |
| 20260504224536 | 54 | 129 | 5.0 | 8.0 | 0.00 | 0.00 | 0.00 | 100 | 955.7 |
| 20260504224435 | 54 | 129 | 5.0 | 8.0 | 0.00 | 0.00 | 0.00 | 100 | 955.8 |
| 20260504224333 | 55 | 124 | 5.0 | 8.0 | 0.00 | 0.00 | 0.00 | 100 | 955.7 |
| 20260504224130 | 54 | 124 | 5.0 | 9.0 | 0.00 | 0.00 | 0.00 | 100 | 955.6 |
| 20260504223926 | 55 | 123 | 5.0 | 9.0 | 0.00 | 0.00 | 0.00 | 100 | 955.7 |
| 20260504223826 | 56 | 124 | 6.0 | 9.0 | 0.00 | 0.00 | 0.00 | 100 | 955.7 |
| 20260504223723 | 56 | 127 | 5.0 | 8.0 | 0.00 | 0.00 | 0.00 | 100 | 955.7 |
| 20260504223520 | 54 | 130 | 4.0 | 8.0 | 0.00 | 0.00 | 0.00 | 100 | 955.7 |
| 20260504223317 | 54 | 123 | 5.0 | 8.0 | 0.00 | 0.00 | 0.00 | 100 | 955.7 |
| 20260504223216 | 54 | 121 | 5.0 | 8.0 | 0.00 | 0.00 | 0.00 | 100 | 955.6 |
| 20260504223113 | 54 | 124 | 5.0 | 8.0 | 0.00 | 0.00 | 0.00 | 100 | 955.7 |
| 20260504222910 | 54 | 129 | 4.0 | 8.0 | 0.00 | 0.00 | 0.00 | 100 | 955.7 |
| 20260504222707 | 54 | 134 | 4.0 | 8.0 | 0.00 | 0.00 | 0.00 | 100 | 955.6 |
| 20260504222606 | 54 | 132 | 4.0 | 8.0 | 0.00 | 0.00 | 0.00 | 100 | 955.7 |
| 20260504222504 | 54 | 128 | 4.0 | 8.0 | 0.00 | 0.00 | 0.00 | 100 | 955.8 |
| 20260504222301 | 54 | 124 | 5.0 | 8.0 | 0.00 | 0.00 | 0.00 | 100 | 955.7 |
| 20260504222057 | 54 | 127 | 5.0 | 7.0 | 0.00 | 0.00 | 0.00 | 100 | 955.9 |
| 20260504221957 | 54 | 127 | 5.0 | 6.0 | 0.00 | 0.00 | 0.00 | 100 | 955.7 |
| 20260504221854 | 54 | 128 | 4.0 | 6.0 | 0.00 | 0.00 | 0.00 | 100 | 955.8 |
| 20260504221651 | 54 | 125 | 4.0 | 6.0 | 0.00 | 0.00 | 0.00 | 100 | 955.8 |
| 20260504221448 | 53 | 120 | 4.0 | 6.0 | 0.00 | 0.00 | 0.00 | 100 | 955.7 |
| 20260504221347 | 54 | 122 | 4.0 | 6.0 | 0.00 | 0.00 | 0.00 | 100 | 955.7 |
| 20260504221245 | 54 | 124 | 4.0 | 7.0 | 0.00 | 0.00 | 0.00 | 100 | 955.7 |
| 20260504221041 | 55 | 118 | 4.0 | 7.0 | 0.00 | 0.00 | 0.00 | 100 | 955.7 |
| 20260504220838 | 54 | 109 | 5.0 | 7.0 | 0.00 | 0.00 | 0.00 | 100 | 955.7 |
| 20260504220737 | 54 | 107 | 5.0 | 7.0 | 0.00 | 0.00 | 0.00 | 100 | 955.6 |
| 20260504220631 | 54 | 106 | 5.0 | 7.0 | 0.00 | 0.00 | 0.00 | 100 | 955.7 |
| 20260504220428 | 55 | 105 | 4.0 | 6.0 | 0.00 | 0.00 | 0.00 | 100 | 955.8 |
| 20260504220225 | 55 | 110 | 4.0 | 7.0 | 0.00 | 0.00 | 0.00 | 100 | 955.8 |
| 20260504220124 | 56 | 119 | 4.0 | 7.0 | 0.00 | 0.00 | 0.00 | 100 | 955.7 |
| 20260504220022 | 56 | 125 | 4.0 | 7.0 | 0.00 | 0.00 | 0.00 | 100 | 955.7 |
| 20260504215819 | 56 | 130 | 4.0 | 8.0 | 0.00 | 0.00 | 0.00 | 100 | 955.8 |
| 20260504215616 | 56 | 127 | 5.0 | 8.0 | 0.00 | 0.00 | 0.00 | 100 | 955.8 |
| 20260504215515 | 57 | 127 | 5.0 | 7.0 | 0.00 | 0.00 | 0.00 | 100 | 955.7 |
| 20260504215413 | 56 | 129 | 5.0 | 7.0 | 0.00 | 0.00 | 0.00 | 100 | 955.8 |
| 20260504215210 | 56 | 140 | 5.0 | 7.0 | 0.00 | 0.00 | 0.00 | 100 | 955.8 |
| 20260504215007 | 57 | 142 | 4.0 | 7.0 | 0.00 | 0.00 | 0.00 | 100 | 955.8 |
| 20260504214906 | 55 | 131 | 5.0 | 7.0 | 0.00 | 0.00 | 0.00 | 100 | 955.8 |
| 20260504214804 | 55 | 130 | 5.0 | 8.0 | 0.00 | 0.00 | 0.00 | 100 | 955.8 |
| 20260504214547 | 55 | 127 | 5.0 | 8.0 | 0.00 | 0.00 | 0.00 | 100 | 955.7 |
| 20260504214345 | 56 | 127 | 4.0 | 8.0 | 0.00 | 0.00 | 0.00 | 100 | 955.7 |
| 20260504214243 | 57 | 130 | 4.0 | 7.0 | 0.00 | 0.00 | 0.00 | 100 | 955.6 |
| 20260504214141 | 57 | 130 | 4.0 | 7.0 | 0.00 | 0.00 | 0.00 | 100 | 955.8 |
| 20260504213939 | 58 | 129 | 4.0 | 7.0 | 0.00 | 0.00 | 0.00 | 100 | 955.7 |
| 20260504213736 | 59 | 148 | 3.0 | 8.0 | 0.00 | 0.00 | 0.00 | 100 | 955.7 |
| 20260504213635 | 58 | 154 | 3.0 | 8.0 | 0.00 | 0.00 | 0.00 | 100 | 955.8 |
| 20260504213532 | 58 | 154 | 4.0 | 8.0 | 0.00 | 0.00 | 0.00 | 100 | 955.8 |
| 20260504213330 | 57 | 139 | 4.0 | 8.0 | 0.00 | 0.00 | 0.00 | 100 | 955.9 |
| 20260504213127 | 57 | 130 | 3.0 | 6.0 | 0.00 | 0.00 | 0.00 | 100 | 955.7 |
| 20260504213026 | 58 | 130 | 3.0 | 7.0 | 0.00 | 0.00 | 0.00 | 100 | 955.8 |
| 20260504212924 | 58 | 131 | 3.0 | 7.0 | 0.00 | 0.00 | 0.00 | 100 | 955.9 |
| 20260504212720 | 57 | 128 | 3.0 | 7.0 | 0.00 | 0.00 | 0.00 | 100 | 955.8 |
| 20260504212517 | 58 | 129 | 4.0 | 7.0 | 0.00 | 0.00 | 0.00 | 100 | 955.9 |
| 20260504212416 | 57 | 125 | 4.0 | 7.0 | 0.00 | 0.00 | 0.00 | 100 | 955.9 |
| 20260504212313 | 56 | 121 | 4.0 | 7.0 | 0.00 | 0.00 | 0.00 | 100 | 955.7 |
| 20260504212110 | 56 | 118 | 4.0 | 7.0 | 0.00 | 0.00 | 0.00 | 100 | 955.8 |
| 20260504211907 | 56 | 122 | 4.0 | 7.0 | 0.00 | 0.00 | 0.00 | 100 | 955.8 |
| 20260504211806 | 55 | 120 | 4.0 | 7.0 | 0.00 | 0.00 | 0.00 | 100 | 955.7 |
| 20260504211704 | 55 | 110 | 4.0 | 8.0 | 0.00 | 0.00 | 0.00 | 100 | 955.7 |
| 20260504211501 | 56 | 106 | 5.0 | 8.0 | 0.00 | 0.00 | 0.00 | 100 | 955.8 |
| 20260504211258 | 56 | 112 | 4.0 | 6.0 | 0.00 | 0.00 | 0.00 | 100 | 955.8 |
| 20260504211157 | 56 | 108 | 4.0 | 7.0 | 0.00 | 0.00 | 0.00 | 100 | 955.8 |
| 20260504211055 | 57 | 110 | 4.0 | 7.0 | 0.00 | 0.00 | 0.00 | 100 | 955.8 |
| 20260504210852 | 59 | 118 | 3.0 | 9.0 | 0.00 | 0.00 | 0.00 | 100 | 955.8 |
| 20260504210649 | 61 | 245 | 2.0 | 9.0 | 0.00 | 0.00 | 0.00 | 100 | 955.8 |
| 20260504210549 | 62 | 211 | 2.0 | 9.0 | 0.00 | 0.00 | 0.00 | 100 | 955.8 |
| 20260504210443 | 62 | 209 | 2.0 | 7.0 | 0.00 | 0.00 | 0.00 | 100 | 955.8 |
| 20260504210240 | 62 | 207 | 2.0 | 11.0 | 0.00 | 0.00 | 0.00 | 100 | 955.9 |
| 20260504210037 | 62 | 221 | 2.0 | 11.0 | 0.00 | 0.00 | 0.00 | 100 | 955.7 |
| 20260504205936 | 62 | 231 | 2.0 | 7.0 | 0.00 | 0.00 | 0.00 | 100 | 955.7 |
| 20260504205833 | 62 | 233 | 2.0 | 7.0 | 0.00 | 0.00 | 0.00 | 100 | 955.8 |
| 20260504205630 | 62 | 223 | 2.0 | 8.0 | 0.00 | 0.00 | 0.00 | 100 | 955.7 |
| 20260504205428 | 62 | 199 | 2.0 | 8.0 | 0.00 | 0.00 | 0.00 | 100 | 955.7 |
| 20260504205327 | 62 | 198 | 2.0 | 8.0 | 0.00 | 0.00 | 0.00 | 100 | 955.6 |
| 20260504205224 | 62 | 203 | 2.0 | 9.0 | 0.00 | 0.00 | 0.00 | 100 | 955.6 |
| 20260504205021 | 62 | 220 | 2.0 | 9.0 | 0.00 | 0.00 | 0.00 | 100 | 955.7 |
| 20260504204818 | 62 | 222 | 2.0 | 12.0 | 0.00 | 0.00 | 0.00 | 100 | 955.7 |
| 20260504204717 | 62 | 222 | 2.0 | 12.0 | 0.00 | 0.00 | 0.00 | 100 | 955.6 |
| 20260504204614 | 62 | 220 | 2.0 | 12.0 | 0.00 | 0.00 | 0.00 | 100 | 955.6 |
| 20260504204411 | 62 | 233 | 1.0 | 6.0 | 0.00 | 0.00 | 0.00 | 100 | 955.6 |
| 20260504204209 | 62 | 234 | 2.0 | 8.0 | 0.00 | 0.00 | 0.00 | 100 | 955.6 |
| 20260504204108 | 62 | 233 | 2.0 | 8.0 | 0.00 | 0.00 | 0.00 | 100 | 955.6 |
| 20260504204005 | 62 | 222 | 2.0 | 8.0 | 0.00 | 0.00 | 0.00 | 100 | 955.6 |
| 20260504203802 | 62 | 227 | 2.0 | 8.0 | 0.00 | 0.00 | 0.00 | 100 | 955.7 |
| 20260504203558 | 62 | 222 | 1.0 | 6.0 | 0.00 | 0.00 | 0.00 | 100 | 955.6 |
| 20260504203457 | 62 | 233 | 1.0 | 6.0 | 0.00 | 0.00 | 0.00 | 100 | 955.7 |
| 20260504203354 | 62 | 238 | 1.0 | 6.0 | 0.00 | 0.00 | 0.00 | 100 | 955.7 |
| 20260504203151 | 62 | 220 | 1.0 | 6.0 | 0.00 | 0.00 | 0.00 | 100 | 955.6 |
| 20260504202948 | 62 | 206 | 2.0 | 7.0 | 0.00 | 0.00 | 0.00 | 100 | 955.5 |
| 20260504202847 | 63 | 207 | 2.0 | 7.0 | 0.00 | 0.00 | 0.00 | 100 | 955.7 |
| 20260504202744 | 63 | 209 | 2.0 | 8.0 | 0.00 | 0.00 | 0.00 | 100 | 955.6 |
| 20260504202541 | 63 | 216 | 2.0 | 8.0 | 0.00 | 0.00 | 0.00 | 100 | 955.7 |
| 20260504202338 | 63 | 224 | 2.0 | 8.0 | 0.00 | 0.00 | 0.00 | 100 | 955.6 |
| 20260504202237 | 63 | 224 | 2.0 | 8.0 | 0.00 | 0.00 | 0.00 | 100 | 955.6 |
| 20260504202135 | 63 | 220 | 2.0 | 7.0 | 0.00 | 0.00 | 0.00 | 100 | 955.6 |
| 20260504201932 | 63 | 220 | 2.0 | 7.0 | 0.00 | 0.00 | 0.00 | 100 | 955.7 |
| 20260504201730 | 63 | 226 | 2.0 | 8.0 | 0.00 | 0.00 | 0.00 | 100 | 955.6 |
| 20260504201629 | 63 | 215 | 2.0 | 8.0 | 0.00 | 0.00 | 0.00 | 100 | 955.6 |
| 20260504201526 | 63 | 215 | 2.0 | 10.0 | 0.00 | 0.00 | 0.00 | 100 | 955.6 |
| 20260504201323 | 63 | 219 | 3.0 | 16.0 | 0.00 | 0.00 | 0.00 | 100 | 955.6 |
| 20260504201120 | 63 | 222 | 2.0 | 16.0 | 0.00 | 0.00 | 0.00 | 100 | 955.6 |
| 20260504201019 | 63 | 219 | 2.0 | 16.0 | 0.00 | 0.00 | 0.00 | 100 | 955.5 |
| 20260504200917 | 63 | 223 | 2.0 | 8.0 | 0.00 | 0.00 | 0.00 | 100 | 955.6 |
| 20260504200714 | 63 | 222 | 2.0 | 8.0 | 0.00 | 0.00 | 0.00 | 100 | 955.6 |
| 20260504200511 | 63 | 218 | 2.0 | 7.0 | 0.00 | 0.00 | 0.00 | 100 | 955.6 |
| 20260504200410 | 63 | 214 | 2.0 | 7.0 | 0.00 | 0.00 | 0.00 | 100 | 955.6 |
| 20260504200304 | 63 | 220 | 2.0 | 6.0 | 0.00 | 0.00 | 0.00 | 100 | 955.6 |
| 20260504200100 | 63 | 215 | 2.0 | 11.0 | 0.00 | 0.00 | 0.00 | 100 | 955.5 |
| 20260504195857 | 63 | 225 | 2.0 | 11.0 | 0.00 | 0.00 | 0.00 | 100 | 955.4 |